WA4BPS Weather Reports


time (UTC)temp
F
wind
direction
speed
knots
gust
knots
rain 1hr
in
rain 24hr
in
rain mn
in
humidity
%
barometer
mb
20260509113238 57 332 1.7 6.1 0.00 0.00 0.00 90 1008.1
20260509113148 57 333 1.7 6.1 0.00 0.00 0.00 90 1008.1
20260509113025 57 332 2.6 6.1 0.00 0.00 0.00 90 1008.1
20260509112943 57 330 2.6 7.0 0.00 0.00 0.00 90 1008.1
20260509112842 57 329 2.6 7.0 0.00 0.00 0.00 90 1008.0
20260509112740 57 294 2.6 7.0 0.00 0.00 0.00 90 1008.0
20260509112643 57 316 1.7 7.0 0.00 0.00 0.00 90 1008.0
20260509112540 57 332 2.6 8.7 0.00 0.00 0.00 90 1008.0
20260509112459 57 330 2.6 8.7 0.00 0.00 0.00 90 1008.0
20260509112336 57 330 2.6 8.7 0.00 0.00 0.00 90 1008.0
20260509112256 57 332 2.6 8.7 0.00 0.00 0.00 90 1008.0
20260509112133 57 316 3.5 8.7 0.00 0.00 0.00 90 1008.0
20260509112032 57 332 5.2 8.7 0.00 0.00 0.00 90 1008.0
20260509111950 57 302 1.7 8.7 0.00 0.00 0.00 90 1008.0
20260509111832 57 292 0.9 8.7 0.00 0.00 0.00 90 1008.0
20260509111742 57 320 5.2 8.7 0.00 0.00 0.00 90 1008.0
20260509111651 57 326 4.3 7.8 0.00 0.00 0.00 90 1008.0
20260509111528 57 322 0.9 6.1 0.00 0.00 0.00 90 1008.0
20260509111446 57 332 2.6 8.7 0.00 0.00 0.00 90 1008.0
20260509111324 57 325 4.3 8.7 0.00 0.00 0.00 90 1007.9
20260509111242 57 330 3.5 8.7 0.00 0.00 0.00 90 1007.9
20260509111141 57 330 3.5 8.7 0.00 0.00 0.00 90 1007.9
20260509111024 57 278 4.3 8.7 0.00 0.00 0.00 90 1007.9
20260509110943 57 330 3.5 8.7 0.00 0.00 0.00 90 1007.9
20260509110842 57 263 2.6 8.7 0.00 0.00 0.00 90 1007.9
20260509110741 57 316 3.5 9.6 0.00 0.00 0.00 90 1007.9
20260509110639 57 285 3.5 9.6 0.00 0.00 0.00 90 1007.9
20260509110538 57 304 6.1 9.6 0.00 0.00 0.00 90 1007.9
20260509110435 57 323 4.3 9.6 0.00 0.00 0.00 90 1007.9
20260509110358 57 326 5.2 9.6 0.00 0.00 0.00 90 1007.9
20260509110233 57 328 2.6 9.6 0.00 0.00 0.00 90 1007.9
20260509110204 57 330 3.5 9.6 0.00 0.00 0.00 90 1007.9
20260509110041 57 313 3.5 9.6 0.00 0.00 0.00 90 1007.9
20260509105939 57 257 3.5 9.6 0.00 0.00 0.00 90 1007.9
20260509105838 57 312 2.6 9.6 0.00 0.00 0.00 90 1007.5
20260509105736 57 316 1.7 9.6 0.00 0.00 0.00 90 1007.5
20260509105655 57 322 1.7 9.6 0.00 0.00 0.00 90 1007.5
20260509105537 57 330 3.5 9.6 0.00 0.00 0.00 90 1007.5
20260509105436 57 271 4.3 9.6 0.00 0.00 0.00 90 1007.5
20260509105333 57 260 5.2 9.6 0.00 0.00 0.00 90 1007.5
20260509105233 57 333 4.3 9.6 0.00 0.00 0.00 90 1007.5
20260509105130 57 260 2.6 8.7 0.00 0.00 0.00 90 1007.5
20260509105029 57 330 3.5 8.7 0.00 0.00 0.00 90 1007.5
20260509104928 57 326 4.3 8.7 0.00 0.00 0.00 90 1007.5
20260509104832 57 282 4.3 8.7 0.00 0.00 0.00 90 1007.5
20260509104730 57 311 6.1 8.7 0.00 0.00 0.00 90 1007.5
20260509104659 57 271 5.2 9.6 0.00 0.00 0.00 90 1007.5
20260509104536 57 294 4.3 9.6 0.00 0.00 0.00 90 1007.5
20260509104435 57 325 5.2 9.6 0.00 0.00 0.00 90 1007.5
20260509104333 57 335 4.3 9.6 0.00 0.00 0.00 90 1007.3
20260509104231 57 265 3.5 9.6 0.00 0.00 0.00 90 1007.3
20260509104134 57 299 2.6 9.6 0.00 0.00 0.00 90 1007.3
20260509104032 57 325 3.5 9.6 0.00 0.00 0.00 90 1007.3
20260509103931 57 311 5.2 9.6 0.00 0.00 0.00 90 1007.3
20260509103829 57 323 5.2 9.6 0.00 0.00 0.00 90 1007.3
20260509103728 57 263 4.3 9.6 0.00 0.00 0.00 90 1007.3
20260509103647 57 301 5.2 9.6 0.00 0.00 0.00 90 1007.3
20260509103524 57 304 6.1 9.6 0.00 0.00 0.00 90 1007.3
20260509103427 57 328 3.5 9.6 0.00 0.00 0.00 90 1007.3
20260509103326 57 295 4.3 9.6 0.00 0.00 0.00 90 1007.3
20260509103235 57 295 4.3 9.6 0.00 0.00 0.00 90 1007.3
20260509103146 57 272 3.5 9.6 0.00 0.00 0.00 90 1007.3
20260509103043 57 267 5.2 9.6 0.00 0.00 0.00 90 1007.3
20260509103003 57 325 5.2 9.6 0.00 0.00 0.00 90 1007.3
20260509102841 57 319 4.3 9.6 0.00 0.00 0.00 90 1007.2
20260509102742 57 281 3.5 9.6 0.00 0.00 0.00 90 1007.2
20260509102641 57 241 1.7 9.6 0.00 0.00 0.00 90 1007.2
20260509102603 57 306 2.6 9.6 0.00 0.00 0.00 90 1007.2
20260509102442 57 257 5.2 9.6 0.00 0.00 0.00 90 1007.2
20260509102400 57 320 6.1 9.6 0.00 0.00 0.00 90 1007.2
20260509102237 57 302 5.2 9.6 0.00 0.00 0.00 90 1007.2
20260509102136 57 291 3.5 9.6 0.00 0.00 0.00 90 1007.2
20260509102033 57 282 5.2 9.6 0.00 0.00 0.00 90 1007.2
20260509101952 57 292 5.2 9.6 0.00 0.00 0.00 90 1007.2
20260509101830 57 282 5.2 9.6 0.00 0.00 0.00 90 1007.2
20260509101749 57 302 4.3 9.6 0.00 0.00 0.00 90 1007.2
20260509101701 57 298 6.1 10.4 0.00 0.00 0.00 90 1007.2
20260509101539 57 271 7.0 10.4 0.00 0.00 0.00 89 1007.2
20260509101437 57 267 6.1 10.4 0.00 0.00 0.00 89 1007.2
20260509101336 57 296 5.2 10.4 0.00 0.00 0.00 89 1007.2
20260509101236 57 329 5.2 10.4 0.00 0.00 0.00 89 1007.2
20260509101134 57 256 5.2 10.4 0.00 0.00 0.00 89 1007.2
20260509101052 57 319 4.3 12.2 0.00 0.00 0.00 89 1007.2
20260509100934 57 243 4.3 12.2 0.00 0.00 0.00 89 1007.2
20260509100833 57 256 6.1 12.2 0.00 0.00 0.00 89 1007.2
20260509100731 57 277 5.2 12.2 0.00 0.00 0.00 89 1007.2
20260509100631 57 285 6.1 12.2 0.00 0.00 0.00 89 1007.2
20260509100532 57 322 5.2 12.2 0.00 0.00 0.00 89 1007.2
20260509100451 57 282 6.1 12.2 0.00 0.00 0.00 89 1007.2
20260509100329 57 301 6.1 12.2 0.00 0.00 0.00 89 1007.2
20260509100243 57 305 6.1 12.2 0.00 0.00 0.00 89 1007.2
20260509100152 57 329 4.3 12.2 0.00 0.00 0.00 89 1007.2
20260509100029 57 282 3.5 11.3 0.00 0.00 0.00 89 1007.2
20260509095928 57 333 7.0 11.3 0.00 0.00 0.00 89 1007.2
20260509095827 57 332 6.1 10.4 0.00 0.00 0.00 89 1007.5
20260509095745 57 322 6.1 10.4 0.00 0.00 0.00 89 1007.5
20260509095621 57 337 2.6 10.4 0.00 0.00 0.00 89 1007.5
20260509095543 57 243 5.2 10.4 0.00 0.00 0.00 89 1007.5
20260509095503 57 316 7.0 10.4 0.00 0.00 0.00 89 1007.5
20260509095337 57 330 6.1 10.4 0.00 0.00 0.00 89 1007.5
20260509095220 57 332 5.2 12.2 0.00 0.00 0.00 89 1007.5
20260509095143 57 326 6.1 12.2 0.00 0.00 0.00 89 1007.5
20260509095041 57 330 5.2 12.2 0.00 0.00 0.00 89 1007.5
20260509094940 57 319 4.3 13.9 0.00 0.00 0.00 89 1007.5
20260509094858 57 287 4.3 13.9 0.00 0.00 0.00 89 1007.5
20260509094756 57 325 4.3 13.9 0.00 0.00 0.00 89 1007.5
20260509094725 57 316 5.2 13.9 0.00 0.00 0.00 89 1007.5
20260509094526 57 313 5.2 13.9 0.00 0.00 0.00 88 1007.5
20260509094425 57 328 8.7 13.9 0.00 0.00 0.00 88 1007.5
20260509094324 57 312 7.8 13.9 0.00 0.00 0.00 88 1007.4
20260509094242 57 320 7.0 13.9 0.00 0.00 0.00 88 1007.4
20260509094140 57 305 8.7 13.9 0.00 0.00 0.00 88 1007.4
20260509094039 57 296 5.2 12.2 0.00 0.00 0.00 88 1007.4
20260509093937 57 326 3.5 12.2 0.00 0.00 0.00 88 1007.4
20260509093855 57 271 2.6 12.2 0.00 0.00 0.00 88 1007.4
20260509093736 57 302 4.3 12.2 0.00 0.00 0.00 88 1007.4
20260509093636 57 280 6.1 12.2 0.00 0.00 0.00 88 1007.4
20260509093535 57 294 6.1 13.9 0.00 0.00 0.00 88 1007.4
20260509093433 57 329 7.0 15.6 0.00 0.00 0.00 88 1007.4
20260509093331 57 326 4.3 16.5 0.00 0.00 0.00 88 1007.4
20260509093300 57 316 5.2 16.5 0.00 0.00 0.00 88 1007.4
20260509093152 57 251 5.2 16.5 0.00 0.00 0.00 88 1007.4
20260509093028 57 325 7.0 16.5 0.00 0.00 0.00 87 1007.4
20260509092932 57 275 7.8 16.5 0.00 0.00 0.00 87 1007.4
20260509092850 57 285 9.6 16.5 0.00 0.00 0.00 87 1007.4
20260509092727 57 313 7.8 16.5 0.00 0.00 0.00 87 1007.4
20260509092646 58 264 7.0 16.5 0.00 0.00 0.00 87 1007.4
20260509092543 58 272 10.4 16.5 0.00 0.00 0.00 87 1007.4
20260509092441 58 294 10.4 15.6 0.00 0.00 0.00 87 1007.4
20260509092339 58 291 9.6 14.8 0.00 0.00 0.00 87 1007.4
20260509092237 58 330 7.8 17.4 0.00 0.00 0.00 87 1007.4
20260509092139 58 254 7.8 17.4 0.00 0.00 0.00 87 1007.4
20260509092039 58 302 7.8 17.4 0.00 0.00 0.00 87 1007.4
20260509091938 58 312 7.8 17.4 0.00 0.00 0.00 87 1007.4
20260509091856 58 329 13.0 17.4 0.00 0.00 0.00 86 1007.4
20260509091744 58 291 9.6 17.4 0.00 0.00 0.00 86 1007.4
20260509091651 58 257 7.0 17.4 0.00 0.00 0.00 86 1007.4
20260509091529 58 323 7.8 17.4 0.00 0.00 0.00 86 1007.4
20260509091447 58 287 13.9 17.4 0.00 0.00 0.00 86 1007.4
20260509091329 58 288 8.7 16.5 0.00 0.00 0.00 86 1007.6
20260509091227 58 308 11.3 16.5 0.00 0.00 0.00 86 1007.6
20260509091146 58 312 7.8 16.5 0.00 0.00 0.00 86 1007.6
20260509091043 58 301 11.3 16.5 0.00 0.00 0.00 86 1007.6
20260509091002 58 291 10.4 16.5 0.00 0.00 0.00 86 1007.6
20260509090838 58 318 7.8 16.5 0.00 0.00 0.00 85 1007.6
20260509090739 58 332 7.8 16.5 0.00 0.00 0.00 85 1007.6
20260509090637 58 330 7.0 16.5 0.00 0.00 0.00 85 1007.6
20260509090556 58 280 8.7 16.5 0.00 0.00 0.00 85 1007.6
20260509090438 58 316 8.7 16.5 0.00 0.00 0.00 85 1007.6
20260509090336 58 325 7.8 16.5 0.00 0.00 0.00 85 1007.6
20260509090255 58 332 10.4 16.5 0.00 0.00 0.00 85 1007.6
20260509090223 58 232 9.6 16.5 0.00 0.00 0.00 85 1007.6
20260509090059 58 332 10.4 17.4 0.00 0.00 0.00 85 1007.6
20260509085938 58 337 9.6 18.2 0.00 0.00 0.00 85 1007.6
20260509085838 58 319 9.6 18.2 0.00 0.00 0.00 84 1007.7
20260509085736 58 328 11.3 18.2 0.00 0.00 0.00 84 1007.7
20260509085637 58 330 7.0 18.2 0.00 0.00 0.00 84 1007.7
20260509085557 58 299 7.0 18.2 0.00 0.00 0.00 84 1007.7
20260509085454 58 318 7.8 18.2 0.00 0.00 0.00 84 1007.7
20260509085334 58 282 7.8 18.2 0.00 0.00 0.00 84 1007.7
20260509085232 58 325 9.6 18.2 0.00 0.00 0.00 84 1007.7
20260509085130 58 312 10.4 18.2 0.00 0.00 0.00 84 1007.7
20260509085048 58 298 9.6 20.9 0.00 0.00 0.00 84 1007.7
20260509084925 58 264 7.8 20.9 0.00 0.00 0.00 84 1007.7
20260509084828 58 328 10.4 20.9 0.00 0.00 0.00 84 1007.7
20260509084748 58 312 11.3 20.9 0.00 0.00 0.00 83 1007.7
20260509084658 58 316 10.4 20.9 0.00 0.00 0.00 83 1007.7
20260509084536 58 329 13.0 20.9 0.00 0.00 0.00 83 1007.7
20260509084454 58 311 11.3 20.9 0.00 0.00 0.00 83 1007.7
20260509084351 58 329 10.4 20.9 0.00 0.00 0.00 83 1008.1
20260509084229 58 319 10.4 20.9 0.00 0.00 0.00 83 1008.1
20260509084127 58 306 7.8 17.4 0.00 0.00 0.00 83 1008.1
20260509084025 58 328 9.6 17.4 0.00 0.00 0.00 83 1008.1
20260509083928 58 312 8.7 17.4 0.00 0.00 0.00 83 1008.1
20260509083846 58 329 8.7 17.4 0.00 0.00 0.00 83 1008.1
20260509083745 58 320 9.6 17.4 0.00 0.00 0.00 83 1008.1
20260509083703 58 299 9.6 17.4 0.00 0.00 0.00 83 1008.1
20260509083600 58 267 8.7 15.6 0.00 0.00 0.00 83 1008.1
20260509083438 58 330 7.8 15.6 0.00 0.00 0.00 83 1008.1
20260509083357 58 330 7.0 15.6 0.00 0.00 0.00 83 1008.1
20260509083234 58 299 6.1 15.6 0.00 0.00 0.00 83 1008.1
20260509083204 58 333 7.8 15.6 0.00 0.00 0.00 83 1008.1
20260509083026 58 329 7.0 16.5 0.00 0.00 0.00 83 1008.1
20260509082925 58 329 6.1 16.5 0.00 0.00 0.00 83 1008.1
20260509082823 58 325 8.7 17.4 0.00 0.00 0.00 83 1008.0
20260509082742 58 332 8.7 17.4 0.00 0.00 0.00 83 1008.0
20260509082640 58 306 7.0 17.4 0.00 0.00 0.00 83 1008.0
20260509082540 58 299 8.7 17.4 0.00 0.00 0.00 83 1008.0
20260509082459 58 335 11.3 17.4 0.00 0.00 0.00 83 1008.0
20260509082356 58 298 12.2 17.4 0.00 0.00 0.00 83 1008.0
20260509082237 58 264 12.2 17.4 0.00 0.00 0.00 83 1008.0
20260509082136 58 319 12.2 17.4 0.00 0.00 0.00 83 1008.0
20260509082053 58 315 11.3 17.4 0.00 0.00 0.00 83 1008.0
20260509081931 58 294 9.6 15.6 0.00 0.00 0.00 83 1008.0
20260509081830 58 296 7.8 15.6 0.00 0.00 0.00 83 1008.0
20260509081729 58 209 8.7 15.6 0.00 0.00 0.00 83 1008.0
20260509081658 58 295 9.6 15.6 0.00 0.00 0.00 83 1008.0
20260509081543 58 250 7.8 15.6 0.00 0.00 0.00 82 1008.0
20260509081441 58 330 7.0 15.6 0.00 0.00 0.00 82 1008.0
20260509081339 58 332 8.7 15.6 0.00 0.00 0.00 82 1008.2
20260509081237 58 332 9.6 15.6 0.00 0.00 0.00 82 1008.2
20260509081136 58 311 8.7 15.6 0.00 0.00 0.00 82 1008.2
20260509081033 58 332 7.8 15.6 0.00 0.00 0.00 82 1008.2
20260509080931 58 258 8.7 15.6 0.00 0.00 0.00 82 1008.2
20260509080828 58 312 4.3 15.6 0.00 0.00 0.00 82 1008.2
20260509080730 58 320 7.0 15.6 0.00 0.00 0.00 82 1008.2
20260509080628 58 326 10.4 15.6 0.00 0.00 0.00 82 1008.2
20260509080546 58 295 10.4 15.6 0.00 0.00 0.00 82 1008.2
20260509080504 58 320 8.7 15.6 0.00 0.00 0.00 82 1008.2
20260509080340 58 311 8.7 15.6 0.00 0.00 0.00 82 1008.2
20260509080240 58 328 6.1 15.6 0.00 0.00 0.00 82 1008.2
20260509080212 58 268 5.2 15.6 0.00 0.00 0.00 82 1008.2
20260509080027 58 320 6.1 16.5 0.00 0.00 0.00 82 1008.2
20260509075929 58 332 7.8 16.5 0.00 0.00 0.00 82 1008.2
20260509075828 58 299 7.8 16.5 0.00 0.00 0.00 82 1007.8
20260509075746 58 320 8.7 16.5 0.00 0.00 0.00 82 1007.8
20260509075705 58 312 7.8 16.5 0.00 0.00 0.00 82 1007.8
20260509075603 58 320 8.7 16.5 0.00 0.00 0.00 82 1007.8
20260509075441 58 322 8.7 19.1 0.00 0.00 0.00 82 1007.8
20260509075400 58 333 7.0 19.1 0.00 0.00 0.00 82 1007.8
20260509075236 58 282 4.3 19.1 0.00 0.00 0.00 81 1007.8
20260509075139 58 319 8.7 19.1 0.00 0.00 0.00 81 1007.8
20260509075039 58 302 8.7 19.1 0.00 0.00 0.00 81 1007.8
20260509074938 58 274 8.7 19.1 0.00 0.00 0.00 81 1007.8
20260509074838 58 322 7.8 19.1 0.00 0.00 0.00 81 1007.8
20260509074736 58 333 10.4 19.1 0.00 0.00 0.00 81 1007.8
20260509074705 58 340 10.4 19.1 0.00 0.00 0.00 81 1007.8
20260509074543 58 322 13.0 19.1 0.00 0.00 0.00 81 1007.8
20260509074445 58 332 9.6 18.2 0.00 0.00 0.00 81 1007.8
20260509074343 58 311 8.7 18.2 0.00 0.00 0.00 81 1007.9
20260509074301 58 322 8.7 18.2 0.00 0.00 0.00 81 1007.9
20260509074140 58 292 9.6 18.2 0.00 0.00 0.00 81 1007.9
20260509074039 58 330 9.6 18.2 0.00 0.00 0.00 81 1007.9
20260509073937 58 296 9.6 18.2 0.00 0.00 0.00 81 1007.9
20260509073835 58 326 7.8 18.2 0.00 0.00 0.00 81 1007.9
20260509073733 58 320 7.0 18.2 0.00 0.00 0.00 81 1007.9
20260509073636 58 330 10.4 18.2 0.00 0.00 0.00 81 1007.9
20260509073533 58 328 10.4 16.5 0.00 0.00 0.00 81 1007.9
20260509073452 58 332 8.7 16.5 0.00 0.00 0.00 81 1007.9
20260509073411 58 295 6.1 16.5 0.00 0.00 0.00 81 1007.9
20260509073310 58 332 9.6 16.5 0.00 0.00 0.00 81 1007.9
20260509073159 58 284 9.6 16.5 0.00 0.00 0.00 81 1007.9
20260509073035 58 320 7.8 16.5 0.00 0.00 0.00 81 1007.9
20260509072935 58 295 7.8 16.5 0.00 0.00 0.00 81 1007.9
20260509072837 58 295 8.7 16.5 0.00 0.00 0.00 81 1007.7
20260509072738 58 318 10.4 16.5 0.00 0.00 0.00 81 1007.7
20260509072635 58 253 8.7 14.8 0.00 0.00 0.00 81 1007.7
20260509072534 58 277 10.4 14.8 0.00 0.00 0.00 81 1007.7
20260509072433 58 261 7.8 14.8 0.00 0.00 0.00 81 1007.7
20260509072332 58 330 6.1 14.8 0.00 0.00 0.00 81 1007.7
20260509072250 58 332 9.6 14.8 0.00 0.00 0.00 81 1007.7
20260509072127 58 301 7.0 14.8 0.00 0.00 0.00 81 1007.7
20260509072029 58 253 8.7 14.8 0.00 0.00 0.00 81 1007.7
20260509071928 58 284 6.1 14.8 0.00 0.00 0.00 81 1007.7
20260509071826 58 274 7.8 14.8 0.00 0.00 0.00 81 1007.7
20260509071736 58 332 7.0 14.8 0.00 0.00 0.00 81 1007.7
20260509071646 58 319 6.1 14.8 0.00 0.00 0.00 81 1007.7
20260509071525 58 325 7.0 14.8 0.00 0.00 0.00 81 1007.7
20260509071443 58 258 7.0 14.8 0.00 0.00 0.00 81 1007.7
20260509071326 58 325 8.7 14.8 0.00 0.00 0.00 81 1008.2
20260509071243 58 309 7.0 14.8 0.00 0.00 0.00 81 1008.2
20260509071140 58 295 7.0 14.8 0.00 0.00 0.00 81 1008.2
20260509071038 58 309 7.8 14.8 0.00 0.00 0.00 81 1008.2
20260509070936 58 302 8.7 13.9 0.00 0.00 0.00 81 1008.2
20260509070833 58 301 7.8 13.9 0.00 0.00 0.00 81 1008.2
20260509070731 58 318 7.8 15.6 0.00 0.00 0.00 81 1008.2
20260509070630 57 332 4.3 15.6 0.00 0.00 0.00 81 1008.2
20260509070532 57 301 7.8 15.6 0.00 0.00 0.00 81 1008.2
20260509070431 57 330 3.5 16.5 0.00 0.00 0.00 81 1008.2
20260509070330 57 329 3.5 16.5 0.00 0.00 0.00 81 1008.2
20260509070229 57 328 6.1 16.5 0.00 0.00 0.00 81 1008.2
20260509070159 57 312 7.0 16.5 0.00 0.00 0.00 81 1008.2
20260509070037 57 328 7.0 16.5 0.00 0.00 0.00 81 1008.2
20260509065936 57 332 9.6 16.5 0.00 0.00 0.00 81 1008.2
20260509065838 57 328 6.1 16.5 0.00 0.00 0.00 81 1008.0
20260509065737 57 337 7.8 16.5 0.00 0.00 0.00 81 1008.0
20260509065635 57 329 6.1 16.5 0.00 0.00 0.00 81 1008.0
20260509065535 57 320 7.0 16.5 0.00 0.00 0.00 81 1008.0
20260509065434 57 306 7.8 13.0 0.00 0.00 0.00 81 1008.0
20260509065352 57 316 7.0 13.0 0.00 0.00 0.00 81 1008.0
20260509065251 57 277 8.7 13.0 0.00 0.00 0.00 81 1008.0
20260509065136 57 299 6.1 13.0 0.00 0.00 0.00 81 1008.0
20260509065035 57 313 7.0 13.0 0.00 0.00 0.00 81 1008.0
20260509064934 57 268 7.0 13.0 0.00 0.00 0.00 81 1008.0
20260509064832 57 309 5.2 12.2 0.00 0.00 0.00 81 1008.0
20260509064730 57 295 7.0 12.2 0.00 0.00 0.00 81 1008.0
20260509064700 57 304 6.1 13.0 0.00 0.00 0.00 81 1008.0
20260509064536 57 270 4.3 13.0 0.00 0.00 0.00 81 1008.0
20260509064434 57 282 7.8 13.0 0.00 0.00 0.00 81 1008.0
20260509064337 57 256 5.2 13.0 0.00 0.00 0.00 81 1007.9
20260509064236 57 261 6.1 13.9 0.00 0.00 0.00 81 1007.9
20260509064135 57 332 6.1 13.9 0.00 0.00 0.00 81 1007.9
20260509064034 57 335 7.8 13.9 0.00 0.00 0.00 81 1007.9
20260509063952 57 278 6.1 13.9 0.00 0.00 0.00 81 1007.9
20260509063830 57 323 7.0 13.9 0.00 0.00 0.00 81 1007.9
20260509063728 57 332 7.0 13.9 0.00 0.00 0.00 80 1007.9
20260509063632 57 277 7.8 14.8 0.00 0.00 0.00 80 1007.9
20260509063530 57 281 6.1 14.8 0.00 0.00 0.00 80 1007.9
20260509063432 57 326 7.8 14.8 0.00 0.00 0.00 80 1007.9
20260509063330 57 332 6.1 14.8 0.00 0.00 0.00 80 1007.9
20260509063229 57 326 5.2 14.8 0.00 0.00 0.00 80 1007.9
20260509063200 57 330 5.2 14.8 0.00 0.00 0.00 80 1007.9
20260509063037 57 291 7.0 14.8 0.00 0.00 0.00 80 1007.9
20260509062938 57 325 5.2 14.8 0.00 0.00 0.00 80 1007.9
20260509062857 57 265 9.6 14.8 0.00 0.00 0.00 80 1007.9
20260509062755 57 336 8.7 14.8 0.00 0.00 0.00 80 1007.9
20260509062633 57 330 7.0 12.2 0.00 0.00 0.00 80 1007.9
20260509062534 57 326 5.2 12.2 0.00 0.00 0.00 80 1007.9
20260509062432 57 332 7.0 12.2 0.00 0.00 0.00 80 1007.9
20260509062331 57 292 6.1 12.2 0.00 0.00 0.00 80 1007.9
20260509062250 57 312 6.1 12.2 0.00 0.00 0.00 80 1007.9
20260509062131 57 332 7.0 13.9 0.00 0.00 0.00 80 1007.9
20260509062029 57 298 8.7 13.9 0.00 0.00 0.00 80 1007.9
20260509061927 57 332 7.0 13.9 0.00 0.00 0.00 80 1007.9
20260509061826 57 315 6.1 13.9 0.00 0.00 0.00 80 1007.9
20260509061736 57 330 6.1 13.9 0.00 0.00 0.00 80 1007.9
20260509061646 57 322 6.1 13.9 0.00 0.00 0.00 80 1007.9
20260509061524 57 330 5.2 13.9 0.00 0.00 0.00 80 1007.9
20260509061425 57 311 5.2 13.9 0.00 0.00 0.00 80 1007.9
20260509061327 57 299 7.8 13.9 0.00 0.00 0.00 79 1008.1
20260509061245 57 325 7.0 13.9 0.00 0.00 0.00 79 1008.1
20260509061143 57 309 5.2 12.2 0.00 0.00 0.00 79 1008.1
20260509061041 57 265 7.0 12.2 0.00 0.00 0.00 79 1008.1
20260509060939 57 330 6.1 12.2 0.00 0.00 0.00 79 1008.1
20260509060838 57 319 7.8 12.2 0.00 0.00 0.00 79 1008.1
20260509060740 57 330 8.7 12.2 0.00 0.00 0.00 79 1008.1
20260509060638 57 288 6.1 12.2 0.00 0.00 0.00 79 1008.1
20260509060535 57 330 7.0 12.2 0.00 0.00 0.00 78 1008.1
20260509060435 57 312 5.2 11.3 0.00 0.00 0.00 78 1008.1
20260509060353 57 305 6.1 11.3 0.00 0.00 0.00 78 1008.1
20260509060230 57 288 7.0 11.3 0.00 0.00 0.00 78 1008.1
20260509060204 57 329 6.1 11.3 0.00 0.00 0.00 78 1008.1
20260509060024 57 329 7.0 10.4 0.00 0.00 0.00 78 1008.1
20260509055942 57 333 6.1 10.4 0.00 0.00 0.00 78 1008.1
20260509055840 57 330 7.0 10.4 0.00 0.00 0.00 78 1008.0
20260509055739 57 320 6.1 10.4 0.00 0.00 0.00 78 1008.0
20260509055637 57 296 5.2 10.4 0.00 0.00 0.00 78 1008.0
20260509055535 57 332 7.0 11.3 0.00 0.00 0.00 78 1008.0
20260509055434 57 296 5.2 14.8 0.00 0.00 0.00 77 1008.0
20260509055337 57 256 5.2 14.8 0.00 0.00 0.00 77 1008.0
20260509055236 57 322 7.0 14.8 0.00 0.00 0.00 77 1008.0
20260509055154 57 299 6.1 14.8 0.00 0.00 0.00 77 1008.0
20260509055031 57 263 5.2 14.8 0.00 0.00 0.00 77 1008.0
20260509054951 57 329 5.2 14.8 0.00 0.00 0.00 77 1008.0
20260509054829 57 208 5.2 14.8 0.00 0.00 0.00 77 1008.0
20260509054728 57 258 7.8 14.8 0.00 0.00 0.00 77 1008.0
20260509054657 57 325 7.8 14.8 0.00 0.00 0.00 77 1008.0
20260509054540 57 316 6.1 14.8 0.00 0.00 0.00 77 1008.0
20260509054438 57 318 7.0 14.8 0.00 0.00 0.00 77 1008.0
20260509054336 57 332 7.8 14.8 0.00 0.00 0.00 77 1008.4
20260509054233 57 258 6.1 14.8 0.00 0.00 0.00 77 1008.4
20260509054132 57 325 7.0 14.8 0.00 0.00 0.00 77 1008.4
20260509054031 57 278 8.7 14.8 0.00 0.00 0.00 77 1008.4
20260509053929 57 323 7.0 14.8 0.00 0.00 0.00 77 1008.4
20260509053847 57 251 7.8 14.8 0.00 0.00 0.00 77 1008.4
20260509053729 57 323 7.0 14.8 0.00 0.00 0.00 76 1008.4
20260509053628 57 247 7.0 14.8 0.00 0.00 0.00 76 1008.4
20260509053530 57 280 6.1 14.8 0.00 0.00 0.00 76 1008.4
20260509053428 57 301 7.0 14.8 0.00 0.00 0.00 76 1008.4
20260509053329 57 328 6.1 14.8 0.00 0.00 0.00 76 1008.4
20260509053238 57 323 5.2 13.0 0.00 0.00 0.00 76 1008.4
20260509053149 57 304 3.5 13.0 0.00 0.00 0.00 76 1008.4
20260509053028 57 309 6.1 13.0 0.00 0.00 0.00 76 1008.4
20260509052927 57 330 6.1 13.0 0.00 0.00 0.00 76 1008.4
20260509052825 57 284 6.1 13.0 0.00 0.00 0.00 76 1008.6
20260509052745 57 322 6.1 13.0 0.00 0.00 0.00 76 1008.6
20260509052702 57 319 6.1 13.0 0.00 0.00 0.00 76 1008.6
20260509052540 57 258 6.1 13.0 0.00 0.00 0.00 76 1008.6
20260509052438 57 312 7.0 13.0 0.00 0.00 0.00 76 1008.6
20260509052337 57 295 7.8 13.0 0.00 0.00 0.00 76 1008.6
20260509052238 57 326 6.1 12.2 0.00 0.00 0.00 76 1008.6
20260509052136 57 311 5.2 12.2 0.00 0.00 0.00 76 1008.6
20260509052055 57 315 7.8 12.2 0.00 0.00 0.00 76 1008.6
20260509051932 57 318 7.8 12.2 0.00 0.00 0.00 76 1008.6
20260509051831 57 311 6.1 13.9 0.00 0.00 0.00 76 1008.6
20260509051730 57 335 5.2 13.9 0.00 0.00 0.00 76 1008.6
20260509051658 57 336 7.0 13.9 0.00 0.00 0.00 76 1008.6
20260509051536 57 332 7.8 13.9 0.00 0.00 0.00 76 1008.6
20260509051438 57 311 7.0 14.8 0.00 0.00 0.00 76 1008.6
20260509051337 57 325 5.2 14.8 0.00 0.00 0.00 76 1008.6
20260509051235 57 322 4.3 14.8 0.00 0.00 0.00 76 1008.6
20260509051134 57 246 5.2 14.8 0.00 0.00 0.00 76 1008.6
20260509051032 57 312 7.8 14.8 0.00 0.00 0.00 76 1008.6
20260509050930 57 330 6.1 14.8 0.00 0.00 0.00 76 1008.6
20260509050832 57 329 4.3 14.8 0.00 0.00 0.00 76 1008.6
20260509050731 57 295 6.1 14.8 0.00 0.00 0.00 76 1008.6
20260509050629 57 325 7.0 14.8 0.00 0.00 0.00 76 1008.6
20260509050528 57 313 7.0 13.0 0.00 0.00 0.00 76 1008.6
20260509050427 57 330 7.8 13.0 0.00 0.00 0.00 76 1008.6
20260509050326 57 330 8.7 13.0 0.00 0.00 0.00 76 1008.6
20260509050237 57 326 6.1 13.0 0.00 0.00 0.00 76 1008.6
20260509050149 57 315 7.0 13.0 0.00 0.00 0.00 76 1008.6
20260509050046 57 301 6.1 13.0 0.00 0.00 0.00 76 1008.6
20260509050004 57 308 6.1 15.6 0.00 0.00 0.00 76 1008.6
20260509045841 57 309 9.6 15.6 0.00 0.00 0.00 76 1009.0
20260509045740 57 319 7.0 15.6 0.00 0.00 0.00 76 1009.0
20260509045639 57 305 7.0 15.6 0.00 0.00 0.00 76 1009.0
20260509045536 57 296 7.8 15.6 0.00 0.00 0.00 76 1009.0
20260509045436 57 326 9.6 15.6 0.00 0.00 0.00 76 1009.0
20260509045338 57 315 8.7 15.6 0.00 0.00 0.00 76 1009.0
20260509045236 57 339 7.8 13.9 0.00 0.00 0.00 77 1009.0
20260509045135 57 277 9.6 13.9 0.00 0.00 0.00 77 1009.0
20260509045034 57 247 7.0 13.0 0.00 0.00 0.00 77 1009.0
20260509044953 57 333 7.0 13.0 0.00 0.00 0.00 77 1009.0
20260509044830 57 326 7.0 13.0 0.00 0.00 0.00 77 1009.0
20260509044800 57 328 6.1 13.0 0.00 0.00 0.00 76 1009.0
20260509044649 57 323 7.0 13.0 0.00 0.00 0.00 76 1009.0
20260509044547 57 335 6.1 13.0 0.00 0.00 0.00 76 1009.0
20260509044449 57 308 7.8 12.2 0.00 0.00 0.00 77 1009.0
20260509044348 57 326 6.1 12.2 0.00 0.00 0.00 77 1009.0
20260509044306 57 318 5.2 13.9 0.00 0.00 0.00 76 1009.0
20260509044204 57 296 7.0 14.8 0.00 0.00 0.00 76 1009.0
20260509044041 57 318 6.1 14.8 0.00 0.00 0.00 76 1009.0
20260509043940 57 304 7.0 14.8 0.00 0.00 0.00 76 1009.0
20260509043840 57 305 7.8 14.8 0.00 0.00 0.00 76 1009.0
20260509043739 57 299 7.0 14.8 0.00 0.00 0.00 76 1009.0
20260509043641 57 306 6.1 14.8 0.00 0.00 0.00 76 1009.0
20260509043540 57 304 6.1 14.8 0.00 0.00 0.00 76 1009.0
20260509043458 57 296 7.0 14.8 0.00 0.00 0.00 76 1009.0
20260509043336 57 294 9.6 14.8 0.00 0.00 0.00 76 1009.0
20260509043234 57 313 7.8 13.9 0.00 0.00 0.00 76 1009.0
20260509043203 57 323 6.1 12.2 0.00 0.00 0.00 76 1009.0
20260509043040 57 318 7.0 12.2 0.00 0.00 0.00 76 1009.0
20260509042938 57 308 7.0 12.2 0.00 0.00 0.00 76 1009.0
20260509042841 57 329 7.0 12.2 0.00 0.00 0.00 76 1009.1
20260509042739 57 206 6.1 12.2 0.00 0.00 0.00 76 1009.1
20260509042635 57 330 4.3 12.2 0.00 0.00 0.00 76 1009.1
20260509042533 57 313 6.1 12.2 0.00 0.00 0.00 76 1009.1
20260509042454 57 333 6.1 12.2 0.00 0.00 0.00 76 1009.1
20260509042351 57 305 5.2 12.2 0.00 0.00 0.00 76 1009.1
20260509042231 57 294 6.1 12.2 0.00 0.00 0.00 76 1009.1
20260509042130 57 330 6.1 12.2 0.00 0.00 0.00 76 1009.1
20260509042031 57 281 6.1 11.3 0.00 0.00 0.00 76 1009.1
20260509041950 57 294 6.1 11.3 0.00 0.00 0.00 76 1009.1
20260509041827 57 323 7.8 11.3 0.00 0.00 0.00 76 1009.1
20260509041736 57 308 5.2 11.3 0.00 0.00 0.00 76 1009.1
20260509041645 57 304 6.1 11.3 0.00 0.00 0.00 76 1009.1
20260509041542 57 336 6.1 11.3 0.00 0.00 0.00 76 1009.1
20260509041441 57 320 6.1 10.4 0.00 0.00 0.00 76 1009.1
20260509041401 57 313 5.2 13.9 0.00 0.00 0.00 76 1009.3
20260509041238 57 313 5.2 13.9 0.00 0.00 0.00 76 1009.3
20260509041141 57 323 5.2 13.9 0.00 0.00 0.00 76 1009.3
20260509041040 57 318 5.2 13.9 0.00 0.00 0.00 76 1009.3
20260509040938 57 319 5.2 13.9 0.00 0.00 0.00 76 1009.3
20260509040837 57 332 5.2 13.9 0.00 0.00 0.00 76 1009.3
20260509040733 57 323 6.1 13.9 0.00 0.00 0.00 75 1009.3
20260509040632 57 316 6.1 13.9 0.00 0.00 0.00 75 1009.3
20260509040551 57 329 5.2 13.9 0.00 0.00 0.00 75 1009.3
20260509040433 57 301 5.2 11.3 0.00 0.00 0.00 75 1009.3
20260509040352 57 274 4.3 11.3 0.00 0.00 0.00 75 1009.3
20260509040239 57 285 3.5 11.3 0.00 0.00 0.00 75 1009.3
20260509040149 57 326 6.1 11.3 0.00 0.00 0.00 75 1009.3
20260509040025 57 295 5.2 11.3 0.00 0.00 0.00 75 1009.3
20260509035943 57 330 6.1 11.3 0.00 0.00 0.00 75 1009.3
20260509035842 57 332 5.2 11.3 0.00 0.00 0.00 75 1009.4
20260509035740 57 319 5.2 9.6 0.00 0.00 0.00 75 1009.4
20260509035643 57 332 5.2 9.6 0.00 0.00 0.00 75 1009.4
20260509035541 57 267 6.1 9.6 0.00 0.00 0.00 75 1009.4
20260509035440 57 312 5.2 9.6 0.00 0.00 0.00 75 1009.4
20260509035358 58 329 6.1 9.6 0.00 0.00 0.00 75 1009.4
20260509035236 58 328 5.2 9.6 0.00 0.00 0.00 75 1009.4
20260509035154 58 332 6.1 9.6 0.00 0.00 0.00 75 1009.4
20260509035051 58 333 4.3 9.6 0.00 0.00 0.00 75 1009.4
20260509034929 58 332 5.2 9.6 0.00 0.00 0.00 75 1009.4
20260509034831 58 320 5.2 9.6 0.00 0.00 0.00 75 1009.4
20260509034749 58 332 6.1 9.6 0.00 0.00 0.00 75 1009.4
20260509034657 58 330 5.2 9.6 0.00 0.00 0.00 75 1009.4
20260509034534 58 332 6.1 9.6 0.00 0.00 0.00 74 1009.4
20260509034433 58 332 7.0 9.6 0.00 0.00 0.00 75 1009.4
20260509034331 58 329 5.2 9.6 0.00 0.00 0.00 74 1009.5
20260509034231 58 333 5.2 9.6 0.00 0.00 0.00 74 1009.5
20260509034129 58 332 5.2 9.6 0.00 0.00 0.00 74 1009.5
20260509034033 58 328 5.2 9.6 0.00 0.00 0.00 74 1009.5
20260509033933 58 332 4.3 9.6 0.00 0.00 0.00 74 1009.5
20260509033852 58 330 5.2 9.6 0.00 0.00 0.00 74 1009.5
20260509033729 58 332 7.0 9.6 0.00 0.00 0.00 74 1009.5
20260509033626 58 328 6.1 9.6 0.00 0.00 0.00 74 1009.5
20260509033544 58 319 6.1 9.6 0.00 0.00 0.00 74 1009.5
20260509033503 58 329 5.2 9.6 0.00 0.00 0.00 74 1009.5
20260509033340 58 332 4.3 11.3 0.00 0.00 0.00 74 1009.5
20260509033233 58 304 5.2 11.3 0.00 0.00 0.00 74 1009.5
20260509033145 58 332 6.1 11.3 0.00 0.00 0.00 74 1009.5
20260509033045 58 320 5.2 11.3 0.00 0.00 0.00 74 1009.5
20260509032943 58 322 6.1 11.3 0.00 0.00 0.00 74 1009.5
20260509032842 58 312 4.3 11.3 0.00 0.00 0.00 74 1009.8
20260509032801 58 333 4.3 11.3 0.00 0.00 0.00 74 1009.8
20260509032639 58 330 7.0 11.3 0.00 0.00 0.00 74 1009.8
20260509032558 58 323 7.0 11.3 0.00 0.00 0.00 74 1009.8
20260509032437 58 333 7.8 11.3 0.00 0.00 0.00 74 1009.8
20260509032359 58 311 5.2 11.3 0.00 0.00 0.00 74 1009.8
20260509032236 58 296 5.2 11.3 0.00 0.00 0.00 74 1009.8
20260509032135 58 333 6.1 11.3 0.00 0.00 0.00 74 1009.8
20260509032034 58 316 5.2 11.3 0.00 0.00 0.00 74 1009.8
20260509031933 58 319 7.0 11.3 0.00 0.00 0.00 74 1009.8
20260509031851 58 330 7.0 11.3 0.00 0.00 0.00 74 1009.8
20260509031735 58 258 5.2 11.3 0.00 0.00 0.00 74 1009.8
20260509031647 58 332 6.1 11.3 0.00 0.00 0.00 74 1009.8
20260509031529 58 330 6.1 11.3 0.00 0.00 0.00 74 1009.8
20260509031427 58 325 6.1 11.3 0.00 0.00 0.00 74 1009.8
20260509031346 58 332 5.2 11.3 0.00 0.00 0.00 74 1009.9
20260509031244 58 257 5.2 10.4 0.00 0.00 0.00 74 1009.9
20260509031143 58 332 7.0 10.4 0.00 0.00 0.00 73 1009.9
20260509031038 58 311 6.1 10.4 0.00 0.00 0.00 73 1009.9
20260509030936 58 284 6.1 12.2 0.00 0.00 0.00 73 1009.9
20260509030834 58 330 5.2 12.2 0.00 0.00 0.00 73 1009.9
20260509030754 58 332 6.1 12.2 0.00 0.00 0.00 73 1009.9
20260509030634 58 326 6.1 12.2 0.00 0.00 0.00 73 1009.9
20260509030534 58 315 6.1 12.2 0.00 0.00 0.00 73 1009.9
20260509030432 58 308 6.1 12.2 0.00 0.00 0.00 73 1009.9
20260509030330 58 320 5.2 12.2 0.00 0.00 0.00 73 1009.9
20260509030243 58 308 5.2 12.2 0.00 0.00 0.00 73 1009.9
20260509030154 58 304 7.0 12.2 0.00 0.00 0.00 73 1009.9
20260509030030 58 326 6.1 12.2 0.00 0.00 0.00 73 1009.9
20260509025952 58 315 6.1 11.3 0.00 0.00 0.00 73 1009.9
20260509025830 58 332 6.1 11.3 0.00 0.00 0.00 73 1009.8
20260509025728 58 332 7.0 11.3 0.00 0.00 0.00 72 1009.8
20260509025627 58 325 5.2 11.3 0.00 0.00 0.00 72 1009.8
20260509025524 58 329 6.1 11.3 0.00 0.00 0.00 72 1009.8
20260509025442 58 295 5.2 11.3 0.00 0.00 0.00 72 1009.8
20260509025341 58 243 5.2 11.3 0.00 0.00 0.00 72 1009.8
20260509025243 58 330 7.0 11.3 0.00 0.00 0.00 72 1009.8
20260509025143 58 329 5.2 11.3 0.00 0.00 0.00 72 1009.8
20260509025041 58 332 5.2 11.3 0.00 0.00 0.00 72 1009.8
20260509024939 58 326 7.0 11.3 0.00 0.00 0.00 72 1009.8
20260509024858 58 333 6.1 11.3 0.00 0.00 0.00 72 1009.8
20260509024735 58 298 4.3 11.3 0.00 0.00 0.00 72 1009.8
20260509024703 59 319 6.1 11.3 0.00 0.00 0.00 72 1009.8
20260509024524 59 328 6.1 11.3 0.00 0.00 0.00 72 1009.8
20260509024443 59 329 5.2 11.3 0.00 0.00 0.00 72 1009.8
20260509024341 59 332 6.1 11.3 0.00 0.00 0.00 72 1009.9
20260509024241 59 284 6.1 11.3 0.00 0.00 0.00 72 1009.9
20260509024140 59 304 4.3 9.6 0.00 0.00 0.00 72 1009.9
20260509024038 59 250 5.2 9.6 0.00 0.00 0.00 72 1009.9
20260509023936 59 329 5.2 11.3 0.00 0.00 0.00 72 1009.9
20260509023838 59 274 4.3 11.3 0.00 0.00 0.00 72 1009.9
20260509023737 59 325 5.2 11.3 0.00 0.00 0.00 72 1009.9
20260509023635 59 246 4.3 11.3 0.00 0.00 0.00 72 1009.9
20260509023534 59 326 5.2 11.3 0.00 0.00 0.00 72 1009.9
20260509023432 59 325 7.0 11.3 0.00 0.00 0.00 72 1009.9
20260509023332 59 330 4.3 11.3 0.00 0.00 0.00 72 1009.9
20260509023231 59 330 2.6 11.3 0.00 0.00 0.00 72 1009.9
20260509023203 59 282 6.1 11.3 0.00 0.00 0.00 72 1009.9
20260509023104 59 328 7.0 11.3 0.00 0.00 0.00 72 1009.9
20260509022941 59 288 6.1 11.3 0.00 0.00 0.00 72 1009.9
20260509022840 59 332 7.0 13.9 0.00 0.00 0.00 72 1009.9
20260509022738 59 301 7.0 13.9 0.00 0.00 0.00 72 1009.9
20260509022636 59 244 7.0 13.9 0.00 0.00 0.00 72 1009.9
20260509022535 59 332 7.8 13.9 0.00 0.00 0.00 71 1009.9
20260509022453 59 328 6.1 13.9 0.00 0.00 0.00 71 1009.9
20260509022334 59 326 3.5 13.9 0.00 0.00 0.00 71 1009.9
20260509022252 59 319 6.1 13.9 0.00 0.00 0.00 71 1009.9
20260509022150 59 332 7.8 13.9 0.00 0.00 0.00 71 1009.9
20260509022028 59 330 9.6 13.9 0.00 0.00 0.00 71 1009.9
20260509021927 59 299 5.2 13.9 0.00 0.00 0.00 71 1009.9
20260509021825 59 333 6.1 13.9 0.00 0.00 0.00 71 1009.9
20260509021724 59 309 7.8 13.9 0.00 0.00 0.00 71 1009.9
20260509021653 59 311 10.4 13.9 0.00 0.00 0.00 71 1009.9
20260509021550 59 265 7.8 11.3 0.00 0.00 0.00 71 1009.9
20260509021432 59 288 7.8 11.3 0.00 0.00 0.00 71 1009.9
20260509021329 60 301 7.0 10.4 0.00 0.00 0.00 71 1009.0
20260509021227 60 332 7.0 9.6 0.00 0.00 0.00 71 1009.0
20260509021125 60 315 7.0 9.6 0.00 0.00 0.00 71 1009.0
20260509021044 60 332 6.1 9.6 0.00 0.00 0.00 71 1009.0
20260509020942 60 326 6.1 9.6 0.00 0.00 0.00 71 1009.0
20260509020840 60 220 5.2 9.6 0.00 0.00 0.00 70 1009.0
20260509020738 60 241 6.1 9.6 0.00 0.00 0.00 70 1009.0
20260509020640 60 328 6.1 10.4 0.00 0.00 0.00 70 1009.0
20260509020539 60 330 6.1 10.4 0.00 0.00 0.00 70 1009.0
20260509020438 60 313 5.2 10.4 0.00 0.00 0.00 70 1009.0
20260509020357 60 272 4.3 10.4 0.00 0.00 0.00 70 1009.0
20260509020254 60 318 5.2 10.4 0.00 0.00 0.00 70 1009.0
20260509020225 60 319 6.1 10.4 0.00 0.00 0.00 70 1009.0
20260509020039 60 326 7.0 10.4 0.00 0.00 0.00 69 1009.0
20260509015937 60 301 5.2 10.4 0.00 0.00 0.00 69 1009.0
20260509015856 60 315 6.1 10.4 0.00 0.00 0.00 69 1009.1
20260509015758 60 305 6.1 10.4 0.00 0.00 0.00 69 1009.1
20260509015635 60 319 4.3 8.7 0.00 0.00 0.00 69 1009.1
20260509015535 60 325 5.2 8.7 0.00 0.00 0.00 69 1009.1
20260509015433 60 330 5.2 9.6 0.00 0.00 0.00 69 1009.1
20260509015331 60 329 5.2 9.6 0.00 0.00 0.00 69 1009.1
20260509015229 60 280 5.2 9.6 0.00 0.00 0.00 69 1009.1
20260509015128 60 326 4.3 9.6 0.00 0.00 0.00 69 1009.1
20260509015032 60 319 4.3 9.6 0.00 0.00 0.00 69 1009.1
20260509014951 60 282 4.3 9.6 0.00 0.00 0.00 68 1009.1
20260509014848 60 306 5.2 11.3 0.00 0.00 0.00 68 1009.1
20260509014746 60 304 4.3 11.3 0.00 0.00 0.00 68 1009.1
20260509014716 60 309 6.1 11.3 0.00 0.00 0.00 68 1009.1
20260509014553 60 329 5.2 11.3 0.00 0.00 0.00 68 1009.1
20260509014450 60 272 6.1 11.3 0.00 0.00 0.00 68 1009.1
20260509014327 60 330 6.1 11.3 0.00 0.00 0.00 68 1009.8
20260509014247 60 285 6.1 11.3 0.00 0.00 0.00 68 1009.8
20260509014124 60 328 5.2 11.3 0.00 0.00 0.00 68 1009.8
20260509014027 60 272 5.2 11.3 0.00 0.00 0.00 68 1009.8
20260509013945 60 332 6.1 11.3 0.00 0.00 0.00 68 1009.8
20260509013842 60 318 7.8 11.3 0.00 0.00 0.00 68 1009.8
20260509013801 60 251 6.1 11.3 0.00 0.00 0.00 68 1009.8
20260509013658 60 332 3.5 11.3 0.00 0.00 0.00 68 1009.8
20260509013536 60 299 6.1 12.2 0.00 0.00 0.00 68 1009.8
20260509013435 61 291 4.3 12.2 0.00 0.00 0.00 68 1009.8
20260509013334 61 318 3.5 12.2 0.00 0.00 0.00 68 1009.8
20260509013233 61 313 3.5 12.2 0.00 0.00 0.00 68 1009.8
20260509013206 61 278 3.5 12.2 0.00 0.00 0.00 68 1009.8
20260509013103 61 295 5.2 12.2 0.00 0.00 0.00 68 1009.8
20260509013000 61 329 6.1 12.2 0.00 0.00 0.00 67 1009.8
20260509012837 61 332 6.1 12.2 0.00 0.00 0.00 67 1009.8
20260509012735 61 309 7.8 12.2 0.00 0.00 0.00 67 1009.8
20260509012634 61 315 7.0 12.2 0.00 0.00 0.00 67 1009.8
20260509012533 61 227 5.2 11.3 0.00 0.00 0.00 67 1009.8
20260509012430 61 312 7.8 11.3 0.00 0.00 0.00 67 1009.8
20260509012332 61 271 6.1 11.3 0.00 0.00 0.00 67 1009.8
20260509012230 61 336 5.2 11.3 0.00 0.00 0.00 67 1009.8
20260509012128 61 306 6.1 11.3 0.00 0.00 0.00 67 1009.8
20260509012027 61 332 7.0 11.3 0.00 0.00 0.00 67 1009.8
20260509011927 61 330 7.0 11.3 0.00 0.00 0.00 67 1009.8
20260509011825 61 330 8.7 11.3 0.00 0.00 0.00 67 1009.8
20260509011729 61 298 7.0 11.3 0.00 0.00 0.00 67 1009.8
20260509011658 61 308 7.0 11.3 0.00 0.00 0.00 67 1009.8
20260509011538 61 326 3.5 11.3 0.00 0.00 0.00 67 1009.8
20260509011436 61 248 6.1 11.3 0.00 0.00 0.00 67 1009.8
20260509011335 61 312 5.2 11.3 0.00 0.00 0.00 67 1008.9
20260509011233 61 332 5.2 11.3 0.00 0.00 0.00 67 1008.9
20260509011132 61 264 5.2 11.3 0.00 0.00 0.00 67 1008.9
20260509011037 62 294 4.3 11.3 0.00 0.00 0.00 67 1008.9
20260509010936 62 325 3.5 11.3 0.00 0.00 0.00 67 1008.9
20260509010834 62 302 6.1 11.3 0.00 0.00 0.00 67 1008.9
20260509010733 62 312 6.1 11.3 0.00 0.00 0.00 67 1008.9
20260509010633 62 301 5.2 10.4 0.00 0.00 0.00 67 1008.9
20260509010531 62 329 4.3 10.4 0.00 0.00 0.00 67 1008.9
20260509010449 62 322 4.3 10.4 0.00 0.00 0.00 67 1008.9
20260509010325 62 294 6.1 10.4 0.00 0.00 0.00 67 1008.9
20260509010239 62 330 3.5 10.4 0.00 0.00 0.00 67 1008.9
20260509010149 62 322 5.2 10.4 0.00 0.00 0.00 67 1008.9
20260509010025 62 330 7.0 10.4 0.00 0.00 0.00 67 1008.9
20260509005943 62 330 6.1 10.4 0.00 0.00 0.00 67 1008.9
20260509005842 62 309 5.2 10.4 0.00 0.00 0.00 67 1009.0
20260509005739 62 329 3.5 10.4 0.00 0.00 0.00 67 1009.0
20260509005638 62 325 3.5 10.4 0.00 0.00 0.00 67 1009.0
20260509005558 62 323 4.3 10.4 0.00 0.00 0.00 66 1009.0
20260509005440 62 274 4.3 10.4 0.00 0.00 0.00 66 1009.0
20260509005338 62 320 3.5 10.4 0.00 0.00 0.00 66 1009.0
20260509005236 62 326 5.2 10.4 0.00 0.00 0.00 66 1009.0
20260509005135 62 319 2.6 9.6 0.00 0.00 0.00 66 1009.0
20260509005033 62 332 3.5 9.6 0.00 0.00 0.00 66 1009.0
20260509004932 62 330 5.2 9.6 0.00 0.00 0.00 66 1009.0
20260509004835 62 326 1.7 9.6 0.00 0.00 0.00 66 1009.0
20260509004745 62 322 4.3 7.8 0.00 0.00 0.00 66 1009.0
20260509004653 62 332 4.3 7.8 0.00 0.00 0.00 66 1009.0
20260509004531 62 296 3.5 7.8 0.00 0.00 0.00 66 1009.0
20260509004430 62 326 3.5 7.8 0.00 0.00 0.00 65 1009.0
20260509004329 63 320 2.6 9.6 0.00 0.00 0.00 65 1008.9
20260509004227 63 268 4.3 10.4 0.00 0.00 0.00 65 1008.9
20260509004125 63 280 4.3 10.4 0.00 0.00 0.00 65 1008.9
20260509004048 63 284 2.6 10.4 0.00 0.00 0.00 65 1008.9
20260509003925 63 305 3.5 10.4 0.00 0.00 0.00 65 1008.9
20260509003843 63 319 2.6 10.4 0.00 0.00 0.00 65 1008.9
20260509003742 63 319 0.9 10.4 0.00 0.00 0.00 65 1008.9
20260509003640 63 332 4.3 10.4 0.00 0.00 0.00 65 1008.9
20260509003559 63 328 6.1 10.4 0.00 0.00 0.00 65 1008.9
20260509003436 63 288 6.1 10.4 0.00 0.00 0.00 65 1008.9
20260509003337 63 285 5.2 10.4 0.00 0.00 0.00 65 1008.9
20260509003239 63 329 0.9 9.6 0.00 0.00 0.00 65 1008.9
20260509003209 63 280 3.5 9.6 0.00 0.00 0.00 65 1008.9
20260509003106 63 304 5.2 12.2 0.00 0.00 0.00 64 1008.9
20260509003004 63 325 3.5 12.2 0.00 0.00 0.00 64 1008.9
20260509002843 63 311 4.3 12.2 0.00 0.00 0.00 64 1010.0
20260509002741 63 309 3.5 12.2 0.00 0.00 0.00 64 1010.0
20260509002639 63 322 4.3 12.2 0.00 0.00 0.00 64 1010.0
20260509002558 63 326 4.3 12.2 0.00 0.00 0.00 64 1010.0
20260509002440 63 320 2.6 12.2 0.00 0.00 0.00 64 1010.0
20260509002339 63 260 3.5 12.2 0.00 0.00 0.00 64 1010.0
20260509002238 63 277 5.2 12.2 0.00 0.00 0.00 64 1010.0
20260509002136 63 328 6.1 12.2 0.00 0.00 0.00 64 1010.0
20260509002034 63 332 4.3 10.4 0.00 0.00 0.00 64 1010.0
20260509001934 63 332 5.2 10.4 0.00 0.00 0.00 64 1010.0
20260509001832 63 253 1.7 10.4 0.00 0.00 0.00 63 1010.0
20260509001735 64 329 3.5 12.2 0.00 0.00 0.00 63 1010.0
20260509001705 64 332 3.5 12.2 0.00 0.00 0.00 63 1010.0
20260509001542 64 322 5.2 12.2 0.00 0.00 0.00 63 1010.0
20260509001440 64 330 4.3 12.2 0.00 0.00 0.00 63 1010.0
20260509001338 64 284 6.1 12.2 0.00 0.00 0.00 62 1009.2
20260509001236 64 313 6.1 12.2 0.00 0.00 0.00 62 1009.2
20260509001135 64 330 3.5 12.2 0.00 0.00 0.00 62 1009.2
20260509001038 64 251 3.5 12.2 0.00 0.00 0.00 62 1009.2
20260509000935 64 330 5.2 12.2 0.00 0.00 0.00 62 1009.2
20260509000834 64 329 7.0 12.2 0.00 0.00 0.00 62 1009.2
20260509000732 64 325 5.2 10.4 0.00 0.00 0.00 61 1009.2
20260509000631 64 322 4.3 12.2 0.00 0.00 0.00 61 1009.2
20260509000529 64 325 6.1 12.2 0.00 0.00 0.00 61 1009.2
20260509000428 64 329 6.1 12.2 0.00 0.00 0.00 61 1009.2
20260509000333 64 287 4.3 12.2 0.00 0.00 0.00 61 1009.2
20260509000241 64 323 3.5 12.2 0.00 0.00 0.00 60 1009.2
20260509000149 64 328 3.5 12.2 0.00 0.00 0.00 60 1009.2
20260509000026 64 278 4.3 12.2 0.00 0.00 0.00 60 1009.2
20260508235924 64 312 4.3 12.2 0.00 0.00 0.00 60 1009.2
20260508235842 64 328 7.8 12.2 0.00 0.00 0.00 60 1009.0
20260508235740 64 236 5.2 9.6 0.00 0.00 0.00 60 1009.0
20260508235640 64 330 5.2 9.6 0.00 0.00 0.00 60 1009.0
20260508235603 64 313 6.1 9.6 0.00 0.00 0.00 60 1009.0
20260508235440 64 299 6.1 9.6 0.00 0.00 0.00 60 1009.0
20260508235357 65 330 5.2 9.6 0.00 0.00 0.00 60 1009.0
20260508235236 65 325 3.5 9.6 0.00 0.00 0.00 60 1009.0
20260508235135 65 332 5.2 9.6 0.00 0.00 0.00 59 1009.0
20260508235033 65 223 5.2 11.3 0.00 0.00 0.00 59 1009.0
20260508234955 65 330 6.1 12.2 0.00 0.00 0.00 59 1009.0
20260508234832 65 326 4.3 12.2 0.00 0.00 0.00 59 1009.0
20260508234758 65 329 6.1 12.2 0.00 0.00 0.00 59 1009.0
20260508234727 65 332 4.3 12.2 0.00 0.00 0.00 59 1009.0
20260508234604 65 298 4.3 12.2 0.00 0.00 0.00 59 1009.0
20260508234502 65 325 4.3 12.2 0.00 0.00 0.00 59 1009.0
20260508234340 65 309 3.5 12.2 0.00 0.00 0.00 59 1009.2
20260508234300 65 330 5.2 12.2 0.00 0.00 0.00 59 1009.2
20260508234137 65 285 6.1 12.2 0.00 0.00 0.00 58 1009.2
20260508234037 65 275 5.2 10.4 0.00 0.00 0.00 58 1009.2
20260508233936 65 320 6.1 10.4 0.00 0.00 0.00 59 1009.2
20260508233839 65 277 6.1 10.4 0.00 0.00 0.00 59 1009.2
20260508233737 65 330 4.3 9.6 0.00 0.00 0.00 59 1009.2
20260508233656 65 250 4.3 9.6 0.00 0.00 0.00 59 1009.2
20260508233553 65 304 5.2 9.6 0.00 0.00 0.00 59 1009.2
20260508233429 65 308 6.1 9.6 0.00 0.00 0.00 59 1009.2
20260508233328 65 302 5.2 8.7 0.00 0.00 0.00 59 1009.2
20260508233245 65 258 4.3 8.7 0.00 0.00 0.00 59 1009.2
20260508233215 65 277 4.3 8.7 0.00 0.00 0.00 59 1009.2
20260508233035 65 250 2.6 8.7 0.00 0.00 0.00 58 1009.2
20260508232934 65 308 2.6 8.7 0.00 0.00 0.00 58 1009.2
20260508232832 65 316 4.3 8.7 0.00 0.00 0.00 58 1009.1
20260508232730 65 299 4.3 8.7 0.00 0.00 0.00 59 1009.1
20260508232629 65 294 4.3 8.7 0.00 0.00 0.00 59 1009.1
20260508232526 65 291 4.3 8.7 0.00 0.00 0.00 59 1009.1
20260508232426 65 272 3.5 6.1 0.00 0.00 0.00 58 1009.1
20260508232328 65 256 4.3 6.1 0.00 0.00 0.00 58 1009.1
20260508232227 65 264 3.5 5.2 0.00 0.00 0.00 57 1009.1
20260508232126 65 232 1.7 6.1 0.00 0.00 0.00 57 1009.1
20260508232025 65 229 2.6 6.1 0.00 0.00 0.00 57 1009.1
20260508231943 65 234 1.7 7.0 0.00 0.00 0.00 57 1009.1
20260508231842 66 196 2.6 12.2 0.00 0.00 0.00 58 1009.1
20260508231735 66 260 1.7 12.2 0.00 0.00 0.00 58 1009.1
20260508231645 66 325 0.9 12.2 0.00 0.00 0.00 58 1009.1
20260508231542 66 247 2.6 12.2 0.00 0.00 0.00 58 1009.1
20260508231501 66 318 3.5 12.2 0.00 0.00 0.00 57 1009.1
20260508231337 66 227 4.3 12.2 0.00 0.00 0.00 57 1009.2
20260508231255 66 305 3.5 12.2 0.00 0.00 0.00 57 1009.2
20260508231132 66 289 1.7 12.2 0.00 0.00 0.00 57 1009.2
20260508231029 66 257 7.0 12.2 0.00 0.00 0.00 56 1009.2
20260508230928 66 296 1.7 11.3 0.00 0.00 0.00 56 1009.2
20260508230826 66 257 6.1 11.3 0.00 0.00 0.00 56 1009.2
20260508230729 66 219 7.8 11.3 0.00 0.00 0.00 56 1009.2
20260508230627 66 274 2.6 7.0 0.00 0.00 0.00 56 1009.2
20260508230543 66 268 2.6 7.0 0.00 0.00 0.00 56 1009.2
20260508230442 66 253 1.7 7.0 0.00 0.00 0.00 56 1009.2
20260508230340 66 198 2.6 7.0 0.00 0.00 0.00 56 1009.2
20260508230238 66 186 2.6 7.0 0.00 0.00 0.00 56 1009.2
20260508230207 66 223 1.7 7.0 0.00 0.00 0.00 56 1009.2
20260508230043 66 155 2.6 7.0 0.00 0.00 0.00 55 1009.2
20260508225925 66 192 2.6 7.0 0.00 0.00 0.00 55 1009.2
20260508225844 66 189 0.9 7.0 0.00 0.00 0.00 56 1009.4
20260508225803 66 213 0.9 7.0 0.00 0.00 0.00 56 1009.4
20260508225640 66 243 1.7 8.7 0.00 0.00 0.00 55 1009.4
20260508225538 66 189 3.5 8.7 0.00 0.00 0.00 55 1009.4
20260508225436 66 212 0.9 8.7 0.00 0.00 0.00 55 1009.4
20260508225334 66 240 1.7 8.7 0.00 0.00 0.00 55 1009.4
20260508225237 66 186 2.6 8.7 0.00 0.00 0.00 55 1009.4
20260508225135 66 172 4.3 8.7 0.00 0.00 0.00 55 1009.4
20260508225052 66 226 2.6 8.7 0.00 0.00 0.00 55 1009.4
20260508224949 66 224 3.5 8.7 0.00 0.00 0.00 55 1009.4
20260508224827 66 232 5.2 8.7 0.00 0.00 0.00 55 1009.4
20260508224726 66 206 1.7 8.7 0.00 0.00 0.00 54 1009.4
20260508224655 66 213 0.9 8.7 0.00 0.00 0.00 54 1009.4
20260508224533 66 196 0.9 8.7 0.00 0.00 0.00 53 1009.4
20260508224436 66 202 1.7 8.7 0.00 0.00 0.00 52 1009.4
20260508224335 66 223 3.5 8.7 0.00 0.00 0.00 53 1009.5
20260508224232 66 192 4.3 8.7 0.00 0.00 0.00 55 1009.5
20260508224151 66 198 7.0 8.7 0.00 0.00 0.00 54 1009.5
20260508224028 66 209 2.6 7.0 0.00 0.00 0.00 54 1009.5
20260508223945 66 195 0.9 7.0 0.00 0.00 0.00 54 1009.5
20260508223843 66 176 1.7 8.7 0.00 0.00 0.00 53 1009.5
20260508223741 66 305 2.6 8.7 0.00 0.00 0.00 54 1009.5
20260508223700 66 175 4.3 8.7 0.00 0.00 0.00 54 1009.5
20260508223541 66 244 3.5 8.7 0.00 0.00 0.00 53 1009.5
20260508223438 66 232 4.3 8.7 0.00 0.00 0.00 53 1009.5
20260508223337 66 186 3.5 8.7 0.00 0.00 0.00 53 1009.5
20260508223239 66 216 1.7 8.7 0.00 0.00 0.00 53 1009.5
20260508223149 66 171 3.5 8.7 0.00 0.00 0.00 53 1009.5
20260508223026 66 212 4.3 8.7 0.00 0.00 0.00 54 1009.5
20260508222944 66 196 4.3 8.7 0.00 0.00 0.00 55 1009.5
20260508222841 66 137 4.3 8.7 0.00 0.00 0.00 54 1010.3
20260508222804 66 202 3.5 8.7 0.00 0.00 0.00 54 1010.3
20260508222641 66 196 2.6 8.7 0.00 0.00 0.00 54 1010.3
20260508222539 66 186 3.5 8.7 0.00 0.00 0.00 53 1010.3
20260508222435 66 215 4.3 8.7 0.00 0.00 0.00 53 1010.3
20260508222334 66 254 4.3 8.7 0.00 0.00 0.00 52 1010.3
20260508222232 67 315 0.9 8.7 0.00 0.00 0.00 53 1010.3
20260508222150 67 278 2.6 8.7 0.00 0.00 0.00 54 1010.3
20260508222029 67 212 1.7 8.7 0.00 0.00 0.00 54 1010.3
20260508221932 67 248 3.5 8.7 0.00 0.00 0.00 54 1010.3
20260508221831 67 256 3.5 8.7 0.00 0.00 0.00 54 1010.3
20260508221739 67 237 3.5 8.7 0.00 0.00 0.00 54 1010.3
20260508221649 67 215 0.0 8.7 0.00 0.00 0.00 54 1010.3
20260508221547 67 184 0.0 8.7 0.00 0.00 0.00 53 1010.3
20260508221424 67 164 2.6 8.7 0.00 0.00 0.00 53 1010.3
20260508221342 67 198 3.5 8.7 0.00 0.00 0.00 53 1010.5
20260508221240 67 224 3.5 8.7 0.00 0.00 0.00 53 1010.5
20260508221142 67 222 2.6 8.7 0.00 0.00 0.00 54 1010.5
20260508221040 67 133 3.5 8.7 0.00 0.00 0.00 53 1010.5
20260508220938 67 248 0.9 8.7 0.00 0.00 0.00 51 1010.5
20260508220837 67 233 0.9 8.7 0.00 0.00 0.00 51 1010.5
20260508220755 67 234 3.5 8.7 0.00 0.00 0.00 52 1010.5
20260508220633 67 302 5.2 9.6 0.00 0.00 0.00 52 1010.5
20260508220530 67 247 4.3 9.6 0.00 0.00 0.00 52 1010.5
20260508220428 67 195 3.5 9.6 0.00 0.00 0.00 52 1010.5
20260508220331 67 193 4.3 9.6 0.00 0.00 0.00 52 1010.5
20260508220230 67 198 1.7 9.6 0.00 0.00 0.00 51 1010.5
20260508220200 67 191 3.5 9.6 0.00 0.00 0.00 51 1010.5
20260508220037 67 222 2.6 9.6 0.00 0.00 0.00 52 1010.5
20260508215936 67 265 0.9 9.6 0.00 0.00 0.00 52 1010.5
20260508215855 67 282 4.3 9.6 0.00 0.00 0.00 53 1010.5
20260508215733 67 243 2.6 6.1 0.00 0.00 0.00 52 1010.5
20260508215651 67 287 0.9 6.1 0.00 0.00 0.00 51 1010.5
20260508215532 67 323 3.5 6.1 0.00 0.00 0.00 52 1010.5
20260508215432 67 203 0.9 7.0 0.00 0.00 0.00 52 1010.5
20260508215351 67 311 1.7 7.0 0.00 0.00 0.00 51 1010.5
20260508215232 67 313 3.5 7.0 0.00 0.00 0.00 52 1010.5
20260508215129 67 260 1.7 7.0 0.00 0.00 0.00 52 1010.5
20260508215028 67 209 1.7 7.0 0.00 0.00 0.00 52 1010.5
20260508214926 67 237 2.6 7.0 0.00 0.00 0.00 51 1010.5
20260508214829 67 246 1.7 7.0 0.00 0.00 0.00 52 1010.5
20260508214743 67 230 2.6 7.0 0.00 0.00 0.00 52 1010.5
20260508214651 67 251 4.3 7.0 0.00 0.00 0.00 51 1010.5
20260508214528 67 193 3.5 7.0 0.00 0.00 0.00 50 1010.5
20260508214427 67 191 1.7 7.0 0.00 0.00 0.00 50 1010.5
20260508214325 67 134 1.7 7.0 0.00 0.00 0.00 51 1010.4
20260508214224 67 213 4.3 7.0 0.00 0.00 0.00 51 1010.4
20260508214126 67 134 4.3 7.0 0.00 0.00 0.00 51 1010.4
20260508214044 67 210 2.6 6.1 0.00 0.00 0.00 51 1010.4
20260508214003 67 209 2.6 6.1 0.00 0.00 0.00 51 1010.4
20260508213840 67 203 3.5 6.1 0.00 0.00 0.00 50 1010.4
20260508213758 67 229 2.6 6.1 0.00 0.00 0.00 50 1010.4
20260508213635 67 196 2.6 6.1 0.00 0.00 0.00 51 1010.4
20260508213534 67 202 2.6 7.0 0.00 0.00 0.00 50 1010.4
20260508213431 67 145 3.5 9.6 0.00 0.00 0.00 50 1010.4
20260508213334 67 188 4.3 9.6 0.00 0.00 0.00 51 1010.4
20260508213233 67 110 3.5 9.6 0.00 0.00 0.00 50 1010.4
20260508213205 67 230 0.9 9.6 0.00 0.00 0.00 50 1010.4
20260508213041 67 168 0.9 9.6 0.00 0.00 0.00 49 1010.4
20260508213000 67 223 1.7 9.6 0.00 0.00 0.00 51 1010.4
20260508212837 67 191 0.9 9.6 0.00 0.00 0.00 50 1010.6
20260508212736 67 319 2.6 9.6 0.00 0.00 0.00 50 1010.6
20260508212634 67 224 6.1 9.6 0.00 0.00 0.00 50 1010.6
20260508212541 67 184 5.2 9.6 0.00 0.00 0.00 50 1010.6
20260508212439 67 217 2.6 9.6 0.00 0.00 0.00 51 1010.6
20260508212338 67 268 3.5 9.6 0.00 0.00 0.00 51 1010.6
20260508212237 67 256 4.3 9.6 0.00 0.00 0.00 51 1010.6
20260508212135 67 230 2.6 9.6 0.00 0.00 0.00 51 1010.6
20260508212034 67 277 4.3 9.6 0.00 0.00 0.00 51 1010.6
20260508211937 67 277 2.6 9.6 0.00 0.00 0.00 50 1010.6
20260508211835 67 294 4.3 9.6 0.00 0.00 0.00 50 1010.6
20260508211734 67 191 6.1 9.6 0.00 0.00 0.00 51 1010.6
20260508211704 67 272 5.2 9.6 0.00 0.00 0.00 51 1010.6
20260508211542 67 267 2.6 7.0 0.00 0.00 0.00 51 1010.6
20260508211439 67 240 0.9 7.0 0.00 0.00 0.00 50 1010.6
20260508211337 67 220 0.9 7.0 0.00 0.00 0.00 49 1010.4
20260508211235 67 160 1.7 7.0 0.00 0.00 0.00 47 1010.4
20260508211137 67 179 1.7 9.6 0.00 0.00 0.00 48 1010.4
20260508211036 67 258 3.5 9.6 0.00 0.00 0.00 50 1010.4
20260508210934 67 275 5.2 9.6 0.00 0.00 0.00 50 1010.4
20260508210832 67 271 2.6 9.6 0.00 0.00 0.00 48 1010.4
20260508210730 67 216 1.7 9.6 0.00 0.00 0.00 47 1010.4
20260508210628 67 233 0.9 9.6 0.00 0.00 0.00 47 1010.4
20260508210546 67 256 3.5 9.6 0.00 0.00 0.00 47 1010.4
20260508210428 67 313 4.3 9.6 0.00 0.00 0.00 49 1010.4
20260508210326 67 232 6.1 9.6 0.00 0.00 0.00 49 1010.4
20260508210237 67 261 4.3 6.1 0.00 0.00 0.00 49 1010.4
20260508210146 67 263 1.7 6.1 0.00 0.00 0.00 48 1010.4
20260508210043 67 234 0.9 6.1 0.00 0.00 0.00 47 1010.4
20260508205941 67 236 0.9 7.8 0.00 0.00 0.00 47 1010.4
20260508205842 67 171 1.7 8.7 0.00 0.00 0.00 47 1009.6
20260508205800 67 189 1.7 8.7 0.00 0.00 0.00 48 1009.6
20260508205642 67 308 1.7 8.7 0.00 0.00 0.00 47 1009.6
20260508205540 66 247 1.7 8.7 0.00 0.00 0.00 46 1009.6
20260508205437 66 161 2.6 8.7 0.00 0.00 0.00 46 1009.6
20260508205336 66 254 3.5 8.7 0.00 0.00 0.00 47 1009.6
20260508205234 66 203 3.5 8.7 0.00 0.00 0.00 47 1009.6
20260508205152 66 223 5.2 8.7 0.00 0.00 0.00 47 1009.6
20260508205029 66 138 5.2 8.7 0.00 0.00 0.00 47 1009.6
20260508204932 66 272 1.7 7.0 0.00 0.00 0.00 47 1009.6
20260508204831 66 213 3.5 7.0 0.00 0.00 0.00 47 1009.6
20260508204740 66 260 4.3 7.8 0.00 0.00 0.00 46 1009.6
20260508204650 66 304 2.6 12.2 0.00 0.00 0.00 45 1009.6
20260508204528 66 285 1.7 12.2 0.00 0.00 0.00 46 1009.6
20260508204448 66 270 5.2 12.2 0.00 0.00 0.00 46 1009.6
20260508204346 66 169 2.6 12.2 0.00 0.00 0.00 47 1010.1
20260508204243 66 325 1.7 12.2 0.00 0.00 0.00 47 1010.1
20260508204141 66 251 1.7 12.2 0.00 0.00 0.00 48 1010.1
20260508204105 66 240 2.6 12.2 0.00 0.00 0.00 49 1010.1
20260508204005 66 288 4.3 12.2 0.00 0.00 0.00 48 1010.1
20260508203842 66 267 6.1 12.2 0.00 0.00 0.00 48 1010.1
20260508203741 66 270 2.6 8.7 0.00 0.00 0.00 48 1010.1
20260508203640 66 253 5.2 8.7 0.00 0.00 0.00 50 1010.1
20260508203535 66 215 3.5 9.6 0.00 0.00 0.00 48 1010.1
20260508203435 66 236 2.6 9.6 0.00 0.00 0.00 48 1010.1
20260508203332 66 230 3.5 9.6 0.00 0.00 0.00 46 1010.1
20260508203255 66 193 0.9 9.6 0.00 0.00 0.00 45 1010.1
20260508203226 66 168 0.9 9.6 0.00 0.00 0.00 47 1010.1
20260508203102 66 143 2.6 9.6 0.00 0.00 0.00 50 1010.1
20260508203001 66 299 2.6 9.6 0.00 0.00 0.00 49 1010.1
20260508202841 66 195 3.5 9.6 0.00 0.00 0.00 49 1010.4
20260508202739 66 244 4.3 9.6 0.00 0.00 0.00 50 1010.4
20260508202637 66 236 4.3 9.6 0.00 0.00 0.00 48 1010.4
20260508202536 66 126 3.5 9.6 0.00 0.00 0.00 48 1010.4
20260508202439 66 240 3.5 9.6 0.00 0.00 0.00 47 1010.4
20260508202336 66 141 3.5 9.6 0.00 0.00 0.00 48 1010.4
20260508202235 66 216 1.7 9.6 0.00 0.00 0.00 51 1010.4
20260508202133 66 292 4.3 9.6 0.00 0.00 0.00 51 1010.4
20260508202030 66 263 3.5 9.6 0.00 0.00 0.00 51 1010.4
20260508201929 66 212 4.3 9.6 0.00 0.00 0.00 51 1010.4
20260508201829 66 182 6.1 9.6 0.00 0.00 0.00 51 1010.4
20260508201739 66 301 3.5 8.7 0.00 0.00 0.00 51 1010.4
20260508201653 66 294 2.6 8.7 0.00 0.00 0.00 52 1010.4
20260508201530 66 271 5.2 8.7 0.00 0.00 0.00 51 1010.4
20260508201449 66 277 3.5 8.7 0.00 0.00 0.00 51 1010.4
20260508201327 66 247 4.3 8.7 0.00 0.00 0.00 50 1010.2
20260508201244 66 161 2.6 7.0 0.00 0.00 0.00 52 1010.2
20260508201203 66 157 0.9 6.1 0.00 0.00 0.00 53 1010.2
20260508201041 66 176 1.7 6.1 0.00 0.00 0.00 53 1010.2
20260508200939 66 133 3.5 6.1 0.00 0.00 0.00 53 1010.2
20260508200844 66 154 2.6 6.1 0.00 0.00 0.00 50 1010.2
20260508200722 66 257 1.7 5.2 0.00 0.00 0.00 49 1010.2
20260508200624 66 161 0.9 5.2 0.00 0.00 0.00 50 1010.2
20260508200542 66 237 1.7 5.2 0.00 0.00 0.00 50 1010.2
20260508200441 66 291 3.5 5.2 0.00 0.00 0.00 48 1010.2
20260508200339 66 301 3.5 5.2 0.00 0.00 0.00 47 1010.2
20260508200222 66 141 3.5 5.2 0.00 0.00 0.00 47 1010.2
20260508200157 66 150 3.5 5.2 0.00 0.00 0.00 47 1010.2
20260508200057 66 128 1.7 4.3 0.00 0.00 0.00 46 1010.2
20260508195937 66 123 0.0 5.2 0.00 0.00 0.00 49 1010.2
20260508195855 66 138 0.9 5.2 0.00 0.00 0.00 50 1010.0
20260508195732 66 128 0.9 5.2 0.00 0.00 0.00 50 1010.0
20260508195631 66 219 0.0 8.7 0.00 0.00 0.00 49 1010.0
20260508195550 66 178 0.0 8.7 0.00 0.00 0.00 49 1010.0
20260508195429 66 203 0.0 8.7 0.00 0.00 0.00 48 1010.0
20260508195332 66 165 1.7 8.7 0.00 0.00 0.00 49 1010.0
20260508195231 66 195 0.9 8.7 0.00 0.00 0.00 50 1010.0
20260508195130 66 184 2.6 8.7 0.00 0.00 0.00 50 1010.0
20260508195047 66 209 1.7 8.7 0.00 0.00 0.00 49 1010.0
20260508194924 66 100 1.7 8.7 0.00 0.00 0.00 49 1010.0
20260508194843 66 90 4.3 8.7 0.00 0.00 0.00 48 1010.0
20260508194733 66 227 0.9 7.8 0.00 0.00 0.00 46 1010.0
20260508194647 66 154 2.6 7.8 0.00 0.00 0.00 46 1010.0
20260508194525 66 168 0.9 7.8 0.00 0.00 0.00 47 1010.0
20260508194444 66 263 0.9 7.8 0.00 0.00 0.00 47 1010.0
20260508194341 66 185 3.5 7.8 0.00 0.00 0.00 48 1010.3
20260508194240 66 172 1.7 7.8 0.00 0.00 0.00 47 1010.3
20260508194138 66 189 5.2 7.8 0.00 0.00 0.00 50 1010.3
20260508194036 66 213 4.3 7.8 0.00 0.00 0.00 50 1010.3
20260508193938 66 162 1.7 7.0 0.00 0.00 0.00 51 1010.3
20260508193857 66 232 0.9 7.0 0.00 0.00 0.00 50 1010.3
20260508193734 66 270 1.7 7.0 0.00 0.00 0.00 49 1010.3
20260508193632 66 152 0.9 4.3 0.00 0.00 0.00 49 1010.3
20260508193532 66 120 0.0 4.3 0.00 0.00 0.00 49 1010.3
20260508193430 66 140 0.9 4.3 0.00 0.00 0.00 48 1010.3
20260508193328 66 110 1.7 4.3 0.00 0.00 0.00 47 1010.3
20260508193237 66 205 3.5 4.3 0.00 0.00 0.00 46 1010.3
20260508193150 66 136 1.7 4.3 0.00 0.00 0.00 47 1010.3
20260508193047 66 112 2.6 5.2 0.00 0.00 0.00 47 1010.3
20260508192925 66 162 0.0 5.2 0.00 0.00 0.00 46 1010.3
20260508192843 66 167 0.9 5.2 0.00 0.00 0.00 48 1010.7
20260508192742 66 117 0.0 5.2 0.00 0.00 0.00 46 1010.7
20260508192640 66 138 0.0 5.2 0.00 0.00 0.00 49 1010.7
20260508192538 66 137 0.0 5.2 0.00 0.00 0.00 48 1010.7
20260508192437 66 189 0.9 5.2 0.00 0.00 0.00 48 1010.7
20260508192340 66 175 0.9 7.0 0.00 0.00 0.00 49 1010.7
20260508192258 66 150 1.7 7.0 0.00 0.00 0.00 47 1010.7
20260508192137 66 128 3.5 7.0 0.00 0.00 0.00 49 1010.7
20260508192036 66 124 3.5 7.0 0.00 0.00 0.00 50 1010.7
20260508191933 66 136 1.7 7.0 0.00 0.00 0.00 47 1010.7
20260508191832 66 154 0.0 7.0 0.00 0.00 0.00 45 1010.7
20260508191731 66 141 1.7 7.0 0.00 0.00 0.00 48 1010.7
20260508191705 66 179 3.5 7.0 0.00 0.00 0.00 48 1010.7
20260508191540 66 134 4.3 7.0 0.00 0.00 0.00 48 1010.7
20260508191438 66 109 0.0 7.0 0.00 0.00 0.00 48 1010.7
20260508191357 66 133 3.5 7.0 0.00 0.00 0.00 49 1011.9
20260508191235 66 137 5.2 7.0 0.00 0.00 0.00 45 1011.9
20260508191134 66 215 5.2 6.1 0.00 0.00 0.00 45 1011.9
20260508191032 66 251 4.3 6.1 0.00 0.00 0.00 49 1011.9
20260508190932 66 210 4.3 6.1 0.00 0.00 0.00 48 1011.9
20260508190836 66 138 5.2 6.1 0.00 0.00 0.00 49 1011.9
20260508190734 66 130 3.5 6.1 0.00 0.00 0.00 46 1011.9
20260508190653 66 215 0.9 8.7 0.00 0.00 0.00 45 1011.9
20260508190532 66 168 1.7 8.7 0.00 0.00 0.00 44 1011.9
20260508190431 66 185 2.6 8.7 0.00 0.00 0.00 46 1011.9
20260508190331 66 172 0.9 8.7 0.00 0.00 0.00 47 1011.9
20260508190228 66 145 2.6 8.7 0.00 0.00 0.00 45 1011.9
20260508190200 66 205 2.6 8.7 0.00 0.00 0.00 45 1011.9
20260508190100 66 257 2.6 8.7 0.00 0.00 0.00 45 1011.9
20260508185937 66 217 2.6 8.7 0.00 0.00 0.00 45 1011.9
20260508185836 66 263 3.5 8.7 0.00 0.00 0.00 46 1011.8
20260508185735 66 95 3.5 7.8 0.00 0.00 0.00 48 1011.8
20260508185633 66 126 5.2 7.8 0.00 0.00 0.00 46 1011.8
20260508185531 66 199 5.2 7.8 0.00 0.00 0.00 48 1011.8
20260508185429 66 200 2.6 5.2 0.00 0.00 0.00 46 1011.8
20260508185332 66 195 2.6 5.2 0.00 0.00 0.00 47 1011.8
20260508185230 66 212 0.9 5.2 0.00 0.00 0.00 48 1011.8
20260508185128 66 247 2.6 5.2 0.00 0.00 0.00 48 1011.8
20260508185027 66 186 1.7 5.2 0.00 0.00 0.00 48 1011.8
20260508184928 66 158 1.7 5.2 0.00 0.00 0.00 48 1011.8
20260508184828 66 172 1.7 5.2 0.00 0.00 0.00 47 1011.8
20260508184742 66 160 0.0 5.2 0.00 0.00 0.00 46 1011.8
20260508184649 66 240 1.7 5.2 0.00 0.00 0.00 46 1011.8
20260508184527 66 154 0.9 5.2 0.00 0.00 0.00 44 1011.8
20260508184446 66 179 1.7 5.2 0.00 0.00 0.00 43 1011.8
20260508184342 66 219 1.7 6.1 0.00 0.00 0.00 46 1011.9
20260508184241 66 140 1.7 6.1 0.00 0.00 0.00 48 1011.9
20260508184140 66 278 1.7 6.1 0.00 0.00 0.00 46 1011.9
20260508184038 66 133 0.0 6.1 0.00 0.00 0.00 46 1011.9
20260508183956 66 158 0.0 7.0 0.00 0.00 0.00 45 1011.9
20260508183837 66 124 1.7 7.0 0.00 0.00 0.00 45 1011.9
20260508183735 66 161 0.9 7.0 0.00 0.00 0.00 46 1011.9
20260508183634 66 202 0.0 7.0 0.00 0.00 0.00 47 1011.9
20260508183533 66 162 2.6 7.0 0.00 0.00 0.00 47 1011.9
20260508183430 66 243 5.2 7.0 0.00 0.00 0.00 48 1011.9
20260508183328 66 157 2.6 7.0 0.00 0.00 0.00 47 1011.9
20260508183257 66 202 0.9 7.0 0.00 0.00 0.00 46 1011.9
20260508183146 66 175 3.5 7.0 0.00 0.00 0.00 46 1011.9
20260508183047 66 278 4.3 7.0 0.00 0.00 0.00 46 1011.9
20260508183006 67 140 4.3 9.6 0.00 0.00 0.00 50 1011.9
20260508182904 67 189 6.1 9.6 0.00 0.00 0.00 50 1012.3
20260508182741 67 165 2.6 9.6 0.00 0.00 0.00 47 1012.3
20260508182638 67 260 1.7 9.6 0.00 0.00 0.00 49 1012.3
20260508182536 67 195 0.9 9.6 0.00 0.00 0.00 48 1012.3
20260508182435 67 251 2.6 9.6 0.00 0.00 0.00 48 1012.3
20260508182335 67 133 3.5 9.6 0.00 0.00 0.00 47 1012.3
20260508182237 67 280 4.3 9.6 0.00 0.00 0.00 48 1012.3
20260508182135 67 179 7.0 9.6 0.00 0.00 0.00 45 1012.3
20260508182033 67 246 5.2 7.0 0.00 0.00 0.00 45 1012.3
20260508181930 67 230 5.2 7.0 0.00 0.00 0.00 47 1012.3
20260508181829 67 137 2.6 7.0 0.00 0.00 0.00 47 1012.3
20260508181728 67 121 2.6 7.0 0.00 0.00 0.00 44 1012.3
20260508181658 67 165 3.5 7.0 0.00 0.00 0.00 44 1012.3
20260508181555 67 133 4.3 7.0 0.00 0.00 0.00 44 1012.3
20260508181437 67 176 3.5 7.0 0.00 0.00 0.00 44 1012.3
20260508181335 67 282 2.6 7.0 0.00 0.00 0.00 44 1012.5
20260508181234 67 199 2.6 7.0 0.00 0.00 0.00 45 1012.5
20260508181131 67 234 1.7 7.0 0.00 0.00 0.00 45 1012.5
20260508181030 67 174 3.5 7.0 0.00 0.00 0.00 45 1012.5
20260508180929 67 215 5.2 7.0 0.00 0.00 0.00 45 1012.5
20260508180828 68 236 5.2 7.0 0.00 0.00 0.00 45 1012.5
20260508180730 68 151 2.6 6.1 0.00 0.00 0.00 43 1012.5
20260508180629 68 258 2.6 6.1 0.00 0.00 0.00 44 1012.5
20260508180529 68 316 0.9 7.8 0.00 0.00 0.00 44 1012.5
20260508180428 68 110 0.0 8.7 0.00 0.00 0.00 44 1012.5
20260508180347 68 124 1.7 8.7 0.00 0.00 0.00 44 1012.5
20260508180235 68 217 0.9 8.7 0.00 0.00 0.00 36 1012.5
20260508180144 68 206 0.0 8.7 0.00 0.00 0.00 36 1012.5
20260508180025 68 104 3.5 8.7 0.00 0.00 0.00 36 1012.5
20260508175927 68 114 3.5 8.7 0.00 0.00 0.00 36 1012.5
20260508175846 68 116 4.3 8.7 0.00 0.00 0.00 39 1012.8
20260508175743 68 239 6.1 8.7 0.00 0.00 0.00 39 1012.8
20260508175642 68 123 4.3 8.7 0.00 0.00 0.00 42 1012.8
20260508175540 68 222 1.7 6.1 0.00 0.00 0.00 38 1012.8
20260508175438 68 234 2.6 6.1 0.00 0.00 0.00 38 1012.8
20260508175358 68 155 0.9 7.0 0.00 0.00 0.00 38 1012.8
20260508175255 68 219 1.7 7.0 0.00 0.00 0.00 40 1012.8
20260508175136 68 175 2.6 8.7 0.00 0.00 0.00 40 1012.8
20260508175035 68 318 3.5 9.6 0.00 0.00 0.00 40 1012.8
20260508174933 68 186 4.3 9.6 0.00 0.00 0.00 40 1012.8
20260508174832 68 215 1.7 9.6 0.00 0.00 0.00 40 1012.8
20260508174729 68 254 3.5 9.6 0.00 0.00 0.00 38 1012.8
20260508174657 68 206 4.3 9.6 0.00 0.00 0.00 38 1012.8
20260508174535 68 315 5.2 9.6 0.00 0.00 0.00 45 1012.8
20260508174438 68 205 5.2 9.6 0.00 0.00 0.00 45 1012.8
20260508174335 69 172 5.2 9.6 0.00 0.00 0.00 45 1013.0
20260508174234 68 223 6.1 9.6 0.00 0.00 0.00 45 1013.0
20260508174132 68 203 3.5 8.7 0.00 0.00 0.00 46 1013.0
20260508174031 68 229 2.6 8.7 0.00 0.00 0.00 45 1013.0
20260508173929 68 199 2.6 8.7 0.00 0.00 0.00 41 1013.0
20260508173827 68 178 4.3 8.7 0.00 0.00 0.00 40 1013.0
20260508173750 68 144 3.5 8.7 0.00 0.00 0.00 39 1013.0
20260508173627 68 157 2.6 8.7 0.00 0.00 0.00 42 1013.0
20260508173528 68 196 3.5 7.0 0.00 0.00 0.00 41 1013.0
20260508173426 68 326 0.0 7.0 0.00 0.00 0.00 39 1013.0
20260508173325 68 224 0.0 12.2 0.00 0.00 0.00 42 1013.0
20260508173224 68 291 2.6 12.2 0.00 0.00 0.00 45 1013.0
20260508173159 68 325 4.3 12.2 0.00 0.00 0.00 45 1013.0
20260508173055 68 311 4.3 12.2 0.00 0.00 0.00 43 1013.0
20260508172936 68 250 0.9 12.2 0.00 0.00 0.00 43 1013.0
20260508172855 68 263 1.7 12.2 0.00 0.00 0.00 42 1013.5
20260508172752 68 247 2.6 12.2 0.00 0.00 0.00 46 1013.5
20260508172712 68 222 2.6 12.2 0.00 0.00 0.00 46 1013.5
20260508172547 67 198 5.2 12.2 0.00 0.00 0.00 44 1013.5
20260508172505 67 306 5.2 12.2 0.00 0.00 0.00 44 1013.5
20260508172342 67 128 2.6 11.3 0.00 0.00 0.00 44 1013.5
20260508172240 67 62 3.5 11.3 0.00 0.00 0.00 41 1013.5
20260508172139 67 103 5.2 11.3 0.00 0.00 0.00 44 1013.5
20260508172057 67 191 0.9 7.0 0.00 0.00 0.00 44 1013.5
20260508171938 67 217 1.7 7.0 0.00 0.00 0.00 46 1013.5
20260508171836 67 248 2.6 7.0 0.00 0.00 0.00 44 1013.5
20260508171734 67 210 2.6 7.0 0.00 0.00 0.00 44 1013.5
20260508171704 67 213 0.9 10.4 0.00 0.00 0.00 44 1013.5
20260508171603 67 209 2.6 10.4 0.00 0.00 0.00 47 1013.5
20260508171439 67 278 2.6 10.4 0.00 0.00 0.00 46 1013.5
20260508171340 67 265 0.9 10.4 0.00 0.00 0.00 45 1013.9
20260508171238 67 268 3.5 10.4 0.00 0.00 0.00 48 1013.9
20260508171141 67 272 3.5 10.4 0.00 0.00 0.00 48 1013.9
20260508171100 66 256 3.5 10.4 0.00 0.00 0.00 48 1013.9
20260508170937 66 278 4.3 10.4 0.00 0.00 0.00 48 1013.9
20260508170836 66 258 3.5 10.4 0.00 0.00 0.00 47 1013.9
20260508170735 66 227 5.2 10.4 0.00 0.00 0.00 45 1013.9
20260508170632 66 209 0.9 9.6 0.00 0.00 0.00 46 1013.9
20260508170532 66 175 1.7 9.6 0.00 0.00 0.00 49 1013.9
20260508170450 66 185 0.9 9.6 0.00 0.00 0.00 48 1013.9
20260508170332 66 189 0.9 9.6 0.00 0.00 0.00 48 1013.9
20260508170241 66 169 1.7 9.6 0.00 0.00 0.00 46 1013.9
20260508170151 66 138 0.9 9.6 0.00 0.00 0.00 47 1013.9
20260508170048 66 147 3.5 9.6 0.00 0.00 0.00 47 1013.9
20260508165945 66 216 6.1 9.6 0.00 0.00 0.00 45 1013.9
20260508165904 66 97 5.2 9.6 0.00 0.00 0.00 44 1013.8
20260508165742 66 168 0.9 8.7 0.00 0.00 0.00 44 1013.8
20260508165641 66 182 0.9 8.7 0.00 0.00 0.00 48 1013.8
20260508165600 66 174 2.6 8.7 0.00 0.00 0.00 47 1013.8
20260508165441 66 179 3.5 8.7 0.00 0.00 0.00 47 1013.8
20260508165340 66 165 0.9 8.7 0.00 0.00 0.00 45 1013.8
20260508165239 66 147 3.5 8.7 0.00 0.00 0.00 46 1013.8
20260508165203 66 120 4.3 8.7 0.00 0.00 0.00 44 1013.8
20260508165039 66 280 5.2 8.7 0.00 0.00 0.00 44 1013.8
20260508164938 66 141 5.2 8.7 0.00 0.00 0.00 46 1013.8
20260508164836 66 193 0.9 7.8 0.00 0.00 0.00 46 1013.8
20260508164738 66 160 0.9 7.8 0.00 0.00 0.00 48 1013.8
20260508164708 66 254 1.7 7.8 0.00 0.00 0.00 44 1013.8
20260508164524 66 192 1.7 7.8 0.00 0.00 0.00 44 1013.8
20260508164424 66 203 4.3 7.8 0.00 0.00 0.00 47 1013.8
20260508164343 66 219 4.3 7.8 0.00 0.00 0.00 47 1013.7
20260508164242 66 230 2.6 7.0 0.00 0.00 0.00 44 1013.7
20260508164139 66 158 3.5 7.0 0.00 0.00 0.00 48 1013.7
20260508164043 66 248 0.9 7.0 0.00 0.00 0.00 48 1013.7
20260508163941 66 299 0.9 7.0 0.00 0.00 0.00 47 1013.7
20260508163859 66 284 0.9 7.0 0.00 0.00 0.00 47 1013.7
20260508163736 66 285 1.7 7.0 0.00 0.00 0.00 47 1013.7
20260508163635 65 282 0.9 7.0 0.00 0.00 0.00 47 1013.7
20260508163533 65 277 4.3 7.0 0.00 0.00 0.00 49 1013.7
20260508163432 65 189 4.3 7.0 0.00 0.00 0.00 49 1013.7
20260508163350 65 205 2.6 7.0 0.00 0.00 0.00 49 1013.7
20260508163233 65 219 2.6 7.0 0.00 0.00 0.00 48 1013.7
20260508163205 65 232 1.7 7.0 0.00 0.00 0.00 48 1013.7
20260508163041 65 147 0.9 8.7 0.00 0.00 0.00 47 1013.7
20260508162939 65 127 0.9 11.3 0.00 0.00 0.00 47 1013.7
20260508162837 65 116 1.7 11.3 0.00 0.00 0.00 47 1014.0
20260508162735 65 178 4.3 11.3 0.00 0.00 0.00 47 1014.0
20260508162634 65 158 5.2 11.3 0.00 0.00 0.00 47 1014.0
20260508162537 65 141 2.6 11.3 0.00 0.00 0.00 47 1014.0
20260508162435 65 219 0.0 11.3 0.00 0.00 0.00 48 1014.0
20260508162333 65 236 3.5 11.3 0.00 0.00 0.00 51 1014.0
20260508162232 65 206 6.1 11.3 0.00 0.00 0.00 52 1014.0
20260508162130 65 217 7.8 11.3 0.00 0.00 0.00 52 1014.0
20260508162030 64 157 4.3 9.6 0.00 0.00 0.00 52 1014.0
20260508161928 64 295 3.5 9.6 0.00 0.00 0.00 53 1014.0
20260508161830 64 234 3.5 9.6 0.00 0.00 0.00 53 1014.0
20260508161749 64 209 3.5 9.6 0.00 0.00 0.00 50 1014.0
20260508161719 64 196 2.6 9.6 0.00 0.00 0.00 50 1014.0
20260508161557 64 92 1.7 9.6 0.00 0.00 0.00 48 1014.0
20260508161434 64 92 5.2 9.6 0.00 0.00 0.00 50 1014.0
20260508161352 64 136 4.3 9.6 0.00 0.00 0.00 50 1014.2
20260508161230 64 154 6.1 9.6 0.00 0.00 0.00 50 1014.2
20260508161128 64 145 3.5 7.0 0.00 0.00 0.00 51 1014.2
20260508161030 64 152 4.3 7.0 0.00 0.00 0.00 52 1014.2
20260508160949 64 219 1.7 7.0 0.00 0.00 0.00 53 1014.2
20260508160827 64 248 4.3 7.0 0.00 0.00 0.00 53 1014.2
20260508160746 64 184 1.7 7.0 0.00 0.00 0.00 52 1014.2
20260508160703 63 251 0.9 7.0 0.00 0.00 0.00 51 1014.2
20260508160540 63 127 2.6 7.0 0.00 0.00 0.00 51 1014.2
20260508160439 63 258 4.3 7.0 0.00 0.00 0.00 50 1014.2
20260508160337 63 230 1.7 7.0 0.00 0.00 0.00 49 1014.2
20260508160240 63 216 0.9 8.7 0.00 0.00 0.00 50 1014.2
20260508160210 63 189 2.6 8.7 0.00 0.00 0.00 51 1014.2
20260508160027 63 157 3.5 8.7 0.00 0.00 0.00 53 1014.2
20260508155924 63 254 1.7 10.4 0.00 0.00 0.00 51 1014.2
20260508155846 63 168 0.9 10.4 0.00 0.00 0.00 50 1013.4
20260508155803 63 136 2.6 10.4 0.00 0.00 0.00 54 1013.4
20260508155702 63 119 3.5 10.4 0.00 0.00 0.00 51 1013.4
20260508155537 63 176 3.5 10.4 0.00 0.00 0.00 53 1013.4
20260508155456 63 195 3.5 10.4 0.00 0.00 0.00 54 1013.4
20260508155335 63 205 4.3 10.4 0.00 0.00 0.00 53 1013.4
20260508155237 63 96 6.1 10.4 0.00 0.00 0.00 53 1013.4
20260508155136 63 148 8.7 10.4 0.00 0.00 0.00 50 1013.4
20260508155055 63 186 6.1 9.6 0.00 0.00 0.00 53 1013.4
20260508154932 63 176 4.3 9.6 0.00 0.00 0.00 53 1013.4
20260508154829 63 223 6.1 9.6 0.00 0.00 0.00 51 1013.4
20260508154727 63 179 4.3 7.0 0.00 0.00 0.00 53 1013.4
20260508154657 63 264 3.5 7.0 0.00 0.00 0.00 53 1013.4
20260508154558 63 150 3.5 7.0 0.00 0.00 0.00 52 1013.4
20260508154422 62 160 4.3 7.0 0.00 0.00 0.00 50 1013.4
20260508154324 62 127 0.9 7.8 0.00 0.00 0.00 48 1013.5
20260508154242 62 123 0.0 7.8 0.00 0.00 0.00 48 1013.5
20260508154140 62 123 3.5 10.4 0.00 0.00 0.00 50 1013.5
20260508154040 62 199 3.5 10.4 0.00 0.00 0.00 51 1013.5
20260508154000 62 227 2.6 10.4 0.00 0.00 0.00 51 1013.5
20260508153858 62 210 1.7 10.4 0.00 0.00 0.00 48 1013.5
20260508153737 62 213 2.6 10.4 0.00 0.00 0.00 49 1013.5
20260508153637 62 206 2.6 10.4 0.00 0.00 0.00 49 1013.5
20260508153535 62 227 5.2 10.4 0.00 0.00 0.00 47 1013.5
20260508153433 62 256 4.3 10.4 0.00 0.00 0.00 47 1013.5
20260508153350 62 278 7.0 10.4 0.00 0.00 0.00 46 1013.5
20260508153229 62 165 6.1 9.6 0.00 0.00 0.00 52 1013.5
20260508153159 62 148 3.5 9.6 0.00 0.00 0.00 52 1013.5
20260508153040 62 220 3.5 9.6 0.00 0.00 0.00 50 1013.5
20260508152938 62 116 5.2 9.6 0.00 0.00 0.00 51 1013.5
20260508152840 62 138 5.2 9.6 0.00 0.00 0.00 52 1013.6
20260508152740 61 181 4.3 9.6 0.00 0.00 0.00 53 1013.6
20260508152638 61 154 6.1 10.4 0.00 0.00 0.00 54 1013.6
20260508152536 61 130 5.2 10.4 0.00 0.00 0.00 53 1013.6
20260508152434 61 144 4.3 10.4 0.00 0.00 0.00 53 1013.6
20260508152332 61 172 3.5 10.4 0.00 0.00 0.00 53 1013.6
20260508152250 61 100 3.5 10.4 0.00 0.00 0.00 54 1013.6
20260508152131 61 223 6.1 10.4 0.00 0.00 0.00 53 1013.6
20260508152028 61 182 4.3 10.4 0.00 0.00 0.00 53 1013.6
20260508151927 61 96 0.0 10.4 0.00 0.00 0.00 53 1013.6
20260508151829 61 96 5.2 10.4 0.00 0.00 0.00 54 1013.6
20260508151726 61 113 5.2 8.7 0.00 0.00 0.00 52 1013.6
20260508151657 61 167 5.2 8.7 0.00 0.00 0.00 52 1013.6
20260508151538 61 121 6.1 10.4 0.00 0.00 0.00 50 1013.6
20260508151441 60 124 4.3 10.4 0.00 0.00 0.00 50 1013.6
20260508151339 60 112 0.9 10.4 0.00 0.00 0.00 50 1013.9
20260508151238 60 193 1.7 10.4 0.00 0.00 0.00 52 1013.9
20260508151137 60 158 1.7 10.4 0.00 0.00 0.00 53 1013.9
20260508151037 60 138 3.5 10.4 0.00 0.00 0.00 52 1013.9
20260508150935 60 205 4.3 10.4 0.00 0.00 0.00 54 1013.9
20260508150838 60 264 5.2 10.4 0.00 0.00 0.00 53 1013.9
20260508150736 60 103 5.2 10.4 0.00 0.00 0.00 53 1013.9
20260508150634 60 178 7.0 10.4 0.00 0.00 0.00 52 1013.9
20260508150532 60 131 2.6 10.4 0.00 0.00 0.00 52 1013.9
20260508150430 60 179 1.7 10.4 0.00 0.00 0.00 53 1013.9
20260508150328 60 226 1.7 10.4 0.00 0.00 0.00 53 1013.9
20260508150237 60 172 3.5 10.4 0.00 0.00 0.00 52 1013.9
20260508150148 60 167 2.6 10.4 0.00 0.00 0.00 54 1013.9
20260508150029 60 172 2.6 10.4 0.00 0.00 0.00 54 1013.9
20260508145948 59 143 1.7 10.4 0.00 0.00 0.00 54 1013.9
20260508145825 59 200 5.2 10.4 0.00 0.00 0.00 53 1013.9
20260508145744 59 210 1.7 10.4 0.00 0.00 0.00 53 1013.9
20260508145703 59 147 2.6 10.4 0.00 0.00 0.00 55 1013.9
20260508145539 59 121 6.1 10.4 0.00 0.00 0.00 54 1013.9
20260508145439 59 208 6.1 10.4 0.00 0.00 0.00 53 1013.9
20260508145356 59 270 7.0 10.4 0.00 0.00 0.00 55 1013.9
20260508145238 59 117 7.8 10.4 0.00 0.00 0.00 54 1013.9
20260508145137 59 203 2.6 9.6 0.00 0.00 0.00 53 1013.9
20260508145035 59 185 2.6 9.6 0.00 0.00 0.00 53 1013.9
20260508144934 59 162 4.3 9.6 0.00 0.00 0.00 54 1013.9
20260508144833 59 155 0.9 9.6 0.00 0.00 0.00 52 1013.9
20260508144743 59 148 2.6 9.6 0.00 0.00 0.00 52 1013.9
20260508144652 59 138 0.9 9.6 0.00 0.00 0.00 53 1013.9
20260508144531 59 169 3.5 9.6 0.00 0.00 0.00 53 1013.9
20260508144430 59 130 6.1 9.6 0.00 0.00 0.00 55 1013.9
20260508144348 59 138 7.8 9.6 0.00 0.00 0.00 54 1014.1
20260508144246 59 123 7.0 8.7 0.00 0.00 0.00 53 1014.1
20260508144204 59 220 5.2 8.7 0.00 0.00 0.00 56 1014.1
20260508144040 59 165 3.5 7.0 0.00 0.00 0.00 56 1014.1
20260508143938 59 169 3.5 7.8 0.00 0.00 0.00 55 1014.1
20260508143859 58 114 1.7 7.8 0.00 0.00 0.00 56 1014.1
20260508143736 58 143 2.6 7.8 0.00 0.00 0.00 55 1014.1
20260508143638 58 203 4.3 7.8 0.00 0.00 0.00 57 1014.1
20260508143536 58 155 2.6 7.8 0.00 0.00 0.00 57 1014.1
20260508143434 58 226 1.7 7.8 0.00 0.00 0.00 57 1014.1
20260508143332 58 151 0.9 7.8 0.00 0.00 0.00 57 1014.1
20260508143242 58 158 4.3 7.8 0.00 0.00 0.00 56 1014.1
20260508143153 58 304 5.2 8.7 0.00 0.00 0.00 57 1014.1
20260508143029 58 161 0.9 8.7 0.00 0.00 0.00 57 1014.1
20260508142931 58 206 4.3 8.7 0.00 0.00 0.00 55 1014.1
20260508142831 58 160 0.0 8.7 0.00 0.00 0.00 54 1014.2
20260508142730 58 208 1.7 8.7 0.00 0.00 0.00 54 1014.2
20260508142652 58 306 1.7 8.7 0.00 0.00 0.00 56 1014.2
20260508142530 58 117 2.6 8.7 0.00 0.00 0.00 56 1014.2
20260508142427 58 155 3.5 8.7 0.00 0.00 0.00 56 1014.2
20260508142323 58 275 6.1 8.7 0.00 0.00 0.00 53 1014.2
20260508142242 58 131 3.5 7.0 0.00 0.00 0.00 53 1014.2
20260508142202 58 261 1.7 7.0 0.00 0.00 0.00 55 1014.2
20260508142039 57 93 0.0 7.8 0.00 0.00 0.00 55 1014.2
20260508141937 57 174 0.9 7.8 0.00 0.00 0.00 56 1014.2
20260508141856 57 256 0.9 7.8 0.00 0.00 0.00 55 1014.2
20260508141733 57 251 3.5 7.8 0.00 0.00 0.00 55 1014.2
20260508141703 57 203 4.3 7.8 0.00 0.00 0.00 55 1014.2
20260508141600 57 222 2.6 9.6 0.00 0.00 0.00 53 1014.2
20260508141438 57 172 2.6 10.4 0.00 0.00 0.00 52 1014.2
20260508141340 57 233 5.2 10.4 0.00 0.00 0.00 53 1014.1
20260508141239 57 312 4.3 10.4 0.00 0.00 0.00 54 1014.1
20260508141138 57 186 3.5 10.4 0.00 0.00 0.00 52 1014.1
20260508141036 57 258 3.5 10.4 0.00 0.00 0.00 52 1014.1
20260508140934 57 192 5.2 10.4 0.00 0.00 0.00 52 1014.1
20260508140853 57 112 6.1 10.4 0.00 0.00 0.00 53 1014.1
20260508140751 57 110 6.1 10.4 0.00 0.00 0.00 54 1014.1
20260508140628 57 311 7.8 10.4 0.00 0.00 0.00 54 1014.1
20260508140532 57 326 5.2 9.6 0.00 0.00 0.00 55 1014.1
20260508140430 57 160 5.2 10.4 0.00 0.00 0.00 57 1014.1
20260508140327 57 326 3.5 10.4 0.00 0.00 0.00 57 1014.1
20260508140258 57 261 5.2 10.4 0.00 0.00 0.00 56 1014.1
20260508140147 57 275 3.5 10.4 0.00 0.00 0.00 55 1014.1
20260508140043 57 145 2.6 10.4 0.00 0.00 0.00 56 1014.1
20260508140002 57 251 3.5 10.4 0.00 0.00 0.00 58 1014.1
20260508135839 57 289 5.2 10.4 0.00 0.00 0.00 57 1014.1
20260508135741 57 265 6.1 10.4 0.00 0.00 0.00 57 1014.1
20260508135640 57 174 7.8 10.4 0.00 0.00 0.00 57 1014.1
20260508135559 56 239 6.1 10.4 0.00 0.00 0.00 58 1014.1
20260508135436 56 237 3.5 10.4 0.00 0.00 0.00 58 1014.1
20260508135334 56 145 5.2 10.4 0.00 0.00 0.00 58 1014.1
20260508135232 56 155 4.3 10.4 0.00 0.00 0.00 55 1014.1
20260508135150 56 90 6.1 10.4 0.00 0.00 0.00 56 1014.1
20260508135028 56 193 5.2 10.4 0.00 0.00 0.00 57 1014.1
20260508134929 56 268 7.8 11.3 0.00 0.00 0.00 56 1014.1
20260508134828 56 328 7.8 11.3 0.00 0.00 0.00 56 1014.1
20260508134728 56 274 7.8 11.3 0.00 0.00 0.00 58 1014.1
20260508134658 56 315 5.2 11.3 0.00 0.00 0.00 58 1014.1
20260508134539 56 152 6.1 11.3 0.00 0.00 0.00 58 1014.1
20260508134437 56 295 7.8 11.3 0.00 0.00 0.00 57 1014.1
20260508134336 56 185 5.2 11.3 0.00 0.00 0.00 56 1014.3
20260508134237 56 330 7.0 11.3 0.00 0.00 0.00 57 1014.3
20260508134135 56 162 8.7 11.3 0.00 0.00 0.00 57 1014.3
20260508134035 56 171 7.0 11.3 0.00 0.00 0.00 56 1014.3
20260508133933 56 253 7.0 11.3 0.00 0.00 0.00 55 1014.3
20260508133831 56 198 9.6 11.3 0.00 0.00 0.00 55 1014.3
20260508133730 55 95 9.6 11.3 0.00 0.00 0.00 57 1014.3
20260508133633 55 195 7.0 11.3 0.00 0.00 0.00 57 1014.3
20260508133532 55 116 7.0 11.3 0.00 0.00 0.00 58 1014.3
20260508133431 55 171 5.2 9.6 0.00 0.00 0.00 57 1014.3
20260508133329 55 261 8.7 9.6 0.00 0.00 0.00 56 1014.3
20260508133247 55 188 4.3 9.6 0.00 0.00 0.00 56 1014.3
20260508133219 55 285 3.5 10.4 0.00 0.00 0.00 55 1014.3
20260508133054 55 174 7.0 10.4 0.00 0.00 0.00 58 1014.3
20260508132932 55 126 6.1 10.4 0.00 0.00 0.00 58 1014.3
20260508132835 55 229 7.0 10.4 0.00 0.00 0.00 57 1014.1
20260508132733 55 137 7.0 10.4 0.00 0.00 0.00 61 1014.1
20260508132631 55 157 5.2 10.4 0.00 0.00 0.00 60 1014.1
20260508132549 55 280 2.6 10.4 0.00 0.00 0.00 60 1014.1
20260508132429 55 322 4.3 10.4 0.00 0.00 0.00 60 1014.1
20260508132328 55 112 7.0 10.4 0.00 0.00 0.00 61 1014.1
20260508132227 55 284 4.3 8.7 0.00 0.00 0.00 64 1014.1
20260508132125 55 230 3.5 8.7 0.00 0.00 0.00 64 1014.1
20260508132027 55 287 6.1 7.8 0.00 0.00 0.00 63 1014.1
20260508131926 55 250 2.6 7.0 0.00 0.00 0.00 62 1014.1
20260508131843 55 230 2.6 7.0 0.00 0.00 0.00 63 1014.1
20260508131742 55 192 3.5 8.7 0.00 0.00 0.00 64 1014.1
20260508131712 55 215 4.3 8.7 0.00 0.00 0.00 64 1014.1
20260508131528 54 246 3.5 8.7 0.00 0.00 0.00 62 1014.1
20260508131427 54 299 4.3 8.7 0.00 0.00 0.00 62 1014.1
20260508131325 54 175 6.1 8.7 0.00 0.00 0.00 63 1013.9
20260508131229 54 267 4.3 8.7 0.00 0.00 0.00 63 1013.9
20260508131128 54 244 5.2 8.7 0.00 0.00 0.00 64 1013.9
20260508131027 54 316 5.2 8.7 0.00 0.00 0.00 64 1013.9
20260508130927 54 191 7.0 8.7 0.00 0.00 0.00 64 1013.9
20260508130847 54 257 6.1 8.7 0.00 0.00 0.00 64 1013.9
20260508130744 54 196 6.1 7.8 0.00 0.00 0.00 64 1013.9
20260508130640 54 123 6.1 7.8 0.00 0.00 0.00 66 1013.9
20260508130539 54 292 5.2 7.8 0.00 0.00 0.00 66 1013.9
20260508130501 54 292 5.2 7.8 0.00 0.00 0.00 66 1013.9
20260508130338 54 292 5.2 7.8 0.00 0.00 0.00 66 1013.9
20260508130257 54 305 5.2 7.8 0.00 0.00 0.00 66 1013.9
20260508130205 54 124 5.2 7.8 0.00 0.00 0.00 66 1013.9
20260508130042 54 320 6.1 8.7 0.00 0.00 0.00 67 1013.9
20260508125940 54 329 4.3 8.7 0.00 0.00 0.00 67 1013.9
20260508125839 54 295 5.2 8.7 0.00 0.00 0.00 66 1013.8
20260508125757 54 141 5.2 9.6 0.00 0.00 0.00 66 1013.8
20260508125640 54 330 5.2 9.6 0.00 0.00 0.00 66 1013.8
20260508125539 54 326 5.2 9.6 0.00 0.00 0.00 65 1013.8
20260508125458 54 323 5.2 9.6 0.00 0.00 0.00 65 1013.8
20260508125335 54 284 5.2 10.4 0.00 0.00 0.00 65 1013.8
20260508125233 54 304 6.1 10.4 0.00 0.00 0.00 64 1013.8
20260508125132 53 291 7.0 10.4 0.00 0.00 0.00 64 1013.8
20260508125050 53 268 5.2 10.4 0.00 0.00 0.00 64 1013.8
20260508124928 53 151 6.1 10.4 0.00 0.00 0.00 65 1013.8
20260508124830 53 116 5.2 10.4 0.00 0.00 0.00 66 1013.8
20260508124740 53 144 7.8 10.4 0.00 0.00 0.00 66 1013.8
20260508124648 53 133 7.8 10.4 0.00 0.00 0.00 67 1013.8
20260508124525 53 253 7.0 10.4 0.00 0.00 0.00 68 1013.8
20260508124424 53 188 6.1 10.4 0.00 0.00 0.00 68 1013.8
20260508124342 53 114 4.3 10.4 0.00 0.00 0.00 68 1013.9
20260508124242 53 219 6.1 10.4 0.00 0.00 0.00 68 1013.9
20260508124124 53 185 5.2 10.4 0.00 0.00 0.00 69 1013.9
20260508124043 53 168 7.0 10.4 0.00 0.00 0.00 69 1013.9
20260508124002 53 294 7.8 10.4 0.00 0.00 0.00 69 1013.9
20260508123841 53 257 6.1 9.6 0.00 0.00 0.00 69 1013.9
20260508123740 53 189 6.1 7.8 0.00 0.00 0.00 69 1013.9
20260508123638 53 326 5.2 7.8 0.00 0.00 0.00 69 1013.9
20260508123557 53 222 3.5 7.8 0.00 0.00 0.00 69 1013.9
20260508123433 53 312 6.1 7.8 0.00 0.00 0.00 69 1013.9
20260508123336 53 271 5.2 7.8 0.00 0.00 0.00 69 1013.9
20260508123235 52 332 6.1 7.8 0.00 0.00 0.00 69 1013.9
20260508123205 52 174 5.2 7.8 0.00 0.00 0.00 69 1013.9
20260508123042 52 176 5.2 8.7 0.00 0.00 0.00 69 1013.9
20260508122940 52 329 5.2 8.7 0.00 0.00 0.00 69 1013.9
20260508122837 52 332 5.2 8.7 0.00 0.00 0.00 69 1014.1
20260508122737 52 230 5.2 8.7 0.00 0.00 0.00 69 1014.1
20260508122640 52 291 5.2 8.7 0.00 0.00 0.00 69 1014.1
20260508122537 52 312 5.2 8.7 0.00 0.00 0.00 69 1014.1
20260508122455 52 272 6.1 8.7 0.00 0.00 0.00 69 1014.1
20260508122332 52 313 4.3 8.7 0.00 0.00 0.00 70 1014.1
20260508122231 52 260 4.3 9.6 0.00 0.00 0.00 70 1014.1
20260508122129 52 302 3.5 9.6 0.00 0.00 0.00 70 1014.1
20260508122028 52 261 7.0 9.6 0.00 0.00 0.00 70 1014.1
20260508121930 51 157 6.1 9.6 0.00 0.00 0.00 71 1014.1
20260508121848 51 246 5.2 9.6 0.00 0.00 0.00 71 1014.1
20260508121726 51 332 6.1 9.6 0.00 0.00 0.00 71 1014.1
20260508121656 51 275 5.2 9.6 0.00 0.00 0.00 71 1014.1
20260508121533 51 332 4.3 9.6 0.00 0.00 0.00 70 1014.1
20260508121431 51 329 5.2 9.6 0.00 0.00 0.00 71 1014.1
20260508121328 51 160 6.1 9.6 0.00 0.00 0.00 71 1013.9
20260508121248 51 112 6.1 8.7 0.00 0.00 0.00 71 1013.9
20260508121129 51 264 4.3 8.7 0.00 0.00 0.00 71 1013.9
20260508121032 51 289 6.1 8.7 0.00 0.00 0.00 70 1013.9
20260508120929 51 264 6.1 8.7 0.00 0.00 0.00 71 1013.9
20260508120830 51 316 6.1 8.7 0.00 0.00 0.00 70 1013.9
20260508120748 51 326 5.2 7.8 0.00 0.00 0.00 71 1013.9
20260508120626 51 131 6.1 7.8 0.00 0.00 0.00 71 1013.9
20260508120529 51 326 6.1 7.8 0.00 0.00 0.00 71 1013.9
20260508120427 51 333 4.3 7.0 0.00 0.00 0.00 71 1013.9
20260508120329 51 181 5.2 7.0 0.00 0.00 0.00 71 1013.9
20260508120227 51 200 6.1 7.8 0.00 0.00 0.00 71 1013.9
20260508120158 51 130 5.2 7.8 0.00 0.00 0.00 71 1013.9
20260508120034 51 145 4.3 7.8 0.00 0.00 0.00 71 1013.9
20260508115933 51 260 6.1 8.7 0.00 0.00 0.00 71 1013.9
20260508115831 51 128 6.1 8.7 0.00 0.00 0.00 72 1013.7
20260508115729 51 274 5.2 8.7 0.00 0.00 0.00 72 1013.7
20260508115652 51 227 5.2 8.7 0.00 0.00 0.00 72 1013.7
20260508115530 51 222 5.2 8.7 0.00 0.00 0.00 72 1013.7
20260508115428 51 233 6.1 8.7 0.00 0.00 0.00 72 1013.7
20260508115327 51 330 5.2 8.7 0.00 0.00 0.00 72 1013.7
20260508115225 51 322 5.2 8.7 0.00 0.00 0.00 72 1013.7
20260508115143 51 301 6.1 8.7 0.00 0.00 0.00 72 1013.7
20260508115042 51 322 6.1 8.7 0.00 0.00 0.00 72 1013.7
20260508114924 51 107 5.2 7.0 0.00 0.00 0.00 72 1013.7
20260508114846 51 332 5.2 7.0 0.00 0.00 0.00 72 1013.7
20260508114742 51 123 5.2 7.0 0.00 0.00 0.00 72 1013.7
20260508114713 51 332 5.2 7.0 0.00 0.00 0.00 71 1013.7
20260508114530 51 330 5.2 7.0 0.00 0.00 0.00 72 1013.7
20260508114430 51 258 6.1 7.0 0.00 0.00 0.00 72 1013.7
20260508114327 51 138 6.1 7.0 0.00 0.00 0.00 72 1013.6
20260508114227 51 329 5.2 8.7 0.00 0.00 0.00 71 1013.6
20260508114128 51 332 6.1 8.7 0.00 0.00 0.00 71 1013.6
20260508114027 51 264 5.2 8.7 0.00 0.00 0.00 71 1013.6
20260508113924 51 278 4.3 8.7 0.00 0.00 0.00 71 1013.6
20260508113843 51 265 4.3 8.7 0.00 0.00 0.00 71 1013.6
20260508113741 51 178 5.2 8.7 0.00 0.00 0.00 71 1013.6
20260508113700 51 332 4.3 8.7 0.00 0.00 0.00 70 1013.6
20260508113537 51 277 4.3 8.7 0.00 0.00 0.00 70 1013.6
20260508113439 51 292 5.2 8.7 0.00 0.00 0.00 70 1013.6
20260508113340 51 272 6.1 8.7 0.00 0.00 0.00 70 1013.6